GFSFLT2_sfc_wetblb_048.txt.gz
Wetbulb
66.56 66.76 66.26 65.99 65.95 66.40 66.57 67.11 67.32 67.42 67.48 67.33 67.19 66.78 66.49 66.59 65.92 66.04 66.50 66.24 65.89 65.66 65.16 64.45 63.54 62.36 61.40 60.71 59.94 59.96 60.25 60.31
61.74 61.46 62.25 65.18 65.10 65.98 66.62 66.71 66.95 67.06 66.57 66.00 65.47 65.58 65.84 66.02 65.57 65.66 65.35 65.76 65.79 65.51 63.98 63.26 61.71 60.55 59.46 59.13 58.94 60.00 59.14 59.25
60.59 58.66 57.65 59.94 63.14 65.83 66.60 66.89 65.90 65.28 65.16 64.61 63.69 63.80 63.92 64.67 64.51 65.53 65.17 64.66 64.18 63.52 62.39 61.51 60.54 58.60 57.34 57.85 58.61 59.08 58.76 58.74
58.38 58.87 58.67 60.66 63.37 64.34 65.95 65.26 64.67 64.09 63.01 63.37 63.49 64.55 64.74 63.89 64.16 64.38 63.94 62.99 62.24 61.04 60.08 60.36 61.20 59.81 57.67 57.24 58.18 57.96 57.38 56.80
56.25 56.87 58.02 59.85 62.09 64.60 64.31 63.66 63.77 63.97 64.17 63.95 64.48 64.17 64.28 64.00 63.63 63.36 62.63 62.00 60.42 60.08 59.94 60.83 59.90 59.46 58.60 58.28 57.58 56.74 56.09 55.34
56.23 56.86 59.00 59.84 60.56 62.35 63.01 61.03 62.26 62.71 63.37 64.46 64.41 63.83 63.73 63.95 63.82 63.89 62.91 62.56 61.83 61.37 60.68 59.74 58.85 58.19 57.53 56.61 56.35 54.89 54.03 54.27
56.74 58.60 59.22 59.44 60.09 62.26 62.06 62.51 62.14 62.81 63.29 64.27 63.94 63.50 63.34 63.46 63.79 63.22 62.57 62.47 61.58 60.50 59.33 58.42 57.87 56.86 56.22 55.31 53.88 53.70 53.66 54.39
57.60 59.63 60.10 60.60 61.10 62.80 62.93 62.69 62.58 63.29 63.25 64.51 65.54 63.71 63.84 63.69 63.35 62.98 62.27 62.12 60.79 60.14 59.06 58.34 57.53 56.69 55.15 53.72 52.99 53.04 53.31 54.71
59.67 60.44 60.91 60.59 61.46 62.91 62.46 62.24 62.55 62.53 64.09 66.40 66.41 65.76 65.04 64.20 63.14 62.03 61.96 61.61 60.87 59.47 58.31 58.02 56.82 55.49 53.51 53.26 53.19 53.66 53.86 54.91
61.90 62.26 62.41 62.95 63.07 61.55 62.76 62.90 63.40 63.95 65.53 66.72 67.08 66.58 65.71 64.36 62.53 61.78 61.13 60.28 59.64 58.53 57.29 57.15 56.24 55.13 54.33 53.95 54.08 53.52 53.01 53.97
61.70 62.96 63.61 64.23 64.24 62.22 62.72 63.48 64.10 65.66 66.62 66.57 66.19 65.53 64.17 63.66 62.28 61.39 60.93 59.73 58.89 57.47 57.30 56.78 54.61 53.48 52.81 54.03 54.07 53.26 52.73 51.53
62.81 63.22 64.16 65.27 64.58 63.66 62.18 63.26 64.41 66.23 66.31 65.83 65.24 64.25 62.97 62.57 61.74 60.59 60.56 59.29 58.00 56.67 56.35 55.26 54.95 54.51 50.80 51.90 53.29 52.11 51.72 51.13
62.38 63.22 64.44 64.81 63.72 61.67 60.26 61.03 63.48 65.38 65.81 65.60 64.81 63.72 62.24 62.11 61.26 60.69 59.76 57.71 57.89 57.04 55.17 53.54 52.52 54.06 52.51 52.20 52.29 50.87 49.86 50.00
62.72 62.82 63.85 65.12 64.68 62.99 61.89 61.38 62.99 64.00 65.10 65.02 64.43 63.66 62.49 62.04 61.44 59.19 58.53 58.19 56.90 55.59 54.65 53.16 53.75 53.56 52.03 50.00 47.56 48.32 48.76 49.47
62.64 62.86 63.93 65.07 65.06 63.93 62.52 62.68 63.55 63.08 63.27 62.39 60.11 58.59 60.23 61.30 59.28 57.12 57.17 57.64 55.75 55.50 54.91 53.39 51.60 51.64 50.34 49.61 46.74 46.12 47.88 49.41
63.55 63.53 64.12 65.13 65.57 64.13 62.10 60.23 60.35 62.48 63.43 63.32 62.04 61.64 60.25 59.51 58.04 56.21 56.72 56.85 56.13 55.08 54.20 53.04 51.79 50.39 50.25 49.43 49.50 47.78 44.95 44.47
63.56 63.86 64.14 64.74 65.54 65.28 63.30 61.33 61.68 63.66 63.80 62.58 61.61 60.47 59.74 58.05 56.80 55.61 55.66 55.22 55.98 54.64 52.69 52.09 52.08 51.39 47.74 48.58 47.62 48.24 47.52 43.89
64.77 63.80 63.78 64.66 64.70 64.87 64.54 63.42 62.43 62.36 62.11 61.47 60.75 58.93 57.62 56.78 55.89 56.23 55.03 55.47 54.79 53.08 52.86 52.64 49.69 46.75 46.36 48.17 47.62 46.00 44.84 44.43
64.88 64.43 63.38 64.33 64.22 64.32 64.56 63.81 63.66 62.71 61.82 61.38 60.54 57.79 53.65 53.70 54.70 55.32 54.90 55.12 53.57 52.56 49.79 49.72 48.07 47.22 48.21 47.96 47.56 46.51 46.65 45.12
65.15 63.17 62.57 63.73 64.01 63.83 64.64 63.89 62.78 62.98 63.01 61.69 59.16 55.19 53.66 54.82 54.10 53.94 54.33 52.24 50.08 47.00 47.31 49.09 48.17 48.13 47.11 46.92 47.13 47.15 46.79 45.41

GFSFLT2_sfc_wetblb_051.txt.gz
Wetbulb
66.55 67.04 67.09 66.74 66.85 66.80 66.88 67.52 67.75 67.95 67.91 67.75 67.41 66.92 66.77 67.63 67.91 67.46 66.87 66.39 65.90 65.58 65.01 64.28 62.70 61.82 60.87 60.24 59.79 60.94 60.81 60.29
64.59 64.74 65.26 66.21 67.09 65.94 66.36 66.83 66.94 67.10 66.95 66.24 65.92 65.90 65.95 66.04 66.28 66.38 66.35 66.09 65.43 64.62 63.97 63.02 61.35 60.25 60.10 59.87 59.19 61.08 59.83 59.52
62.63 62.68 62.89 64.81 65.43 65.44 65.79 66.88 66.45 65.61 65.58 64.71 63.57 62.75 62.92 64.18 64.61 65.23 65.74 65.41 64.50 63.48 62.83 61.89 60.55 59.20 58.90 58.33 59.29 58.88 58.38 58.51
57.58 58.58 60.38 60.33 63.12 64.01 64.30 65.75 64.93 64.30 64.12 64.46 62.83 64.96 64.90 62.96 64.08 64.28 64.20 63.89 63.44 62.72 61.85 61.01 61.20 59.78 58.81 58.75 58.47 58.14 56.69 56.57
56.76 58.00 58.91 58.35 60.10 61.04 61.87 63.47 63.94 63.50 63.97 63.84 65.08 64.15 63.19 63.96 62.97 61.45 61.99 61.77 60.44 59.86 59.73 61.63 61.87 61.10 59.73 58.83 57.98 56.86 55.24 55.14
57.19 58.60 58.91 60.46 60.16 60.43 61.00 62.78 63.04 62.41 63.69 65.87 65.40 64.15 64.28 63.71 63.31 63.07 62.54 62.30 61.17 61.72 62.07 61.58 60.79 59.90 58.73 57.63 56.59 55.18 54.64 54.92
56.28 57.53 57.81 59.08 60.57 60.44 61.70 61.29 60.32 62.04 63.78 64.92 64.53 63.60 64.70 64.22 64.45 63.81 63.39 63.56 62.92 62.41 61.38 60.61 59.79 58.86 57.84 56.34 54.93 54.83 54.79 55.07
56.78 58.30 58.56 59.05 58.81 59.50 60.47 61.45 61.66 63.07 63.79 64.45 65.49 64.97 65.48 63.67 64.02 63.19 63.31 63.55 63.40 62.41 61.02 60.49 59.76 58.59 56.34 54.86 54.20 54.04 54.47 55.47
56.69 57.74 57.97 57.19 57.34 58.90 60.47 62.18 62.37 62.60 63.23 66.08 66.09 65.30 64.97 65.02 64.45 63.75 63.76 64.00 63.07 62.33 61.13 60.26 59.02 57.32 55.18 54.40 53.93 54.10 54.32 54.59
58.38 58.55 59.05 58.15 59.44 60.12 60.70 62.63 62.66 62.55 63.48 65.40 66.22 65.15 65.14 64.82 63.96 63.50 63.83 63.18 62.05 60.94 60.04 59.35 58.53 56.86 55.39 54.51 54.45 53.96 53.69 53.93
59.07 59.58 58.59 60.26 62.57 62.92 63.85 63.52 61.97 61.27 63.56 64.95 65.89 66.34 66.26 66.08 64.37 64.00 63.68 62.24 61.50 60.72 59.79 59.71 57.24 55.31 54.50 54.40 54.97 54.01 52.91 52.08
61.37 61.30 61.58 62.85 63.41 62.46 61.49 62.34 62.68 63.56 64.63 65.56 66.21 66.46 65.98 65.65 64.41 63.86 62.94 61.79 60.94 60.32 59.61 58.54 57.09 55.65 52.56 52.64 54.75 54.05 53.14 52.47
62.50 62.63 63.40 63.46 62.39 60.93 59.53 60.69 61.84 62.96 64.38 65.66 65.92 65.87 65.29 64.83 63.87 63.39 62.60 61.54 60.83 60.04 58.66 56.48 54.94 55.29 53.84 53.73 53.79 53.56 52.22 51.83
62.56 62.58 62.95 64.26 63.79 62.69 61.73 61.05 61.72 62.43 64.21 65.61 65.73 65.34 64.77 64.23 63.87 62.55 62.15 60.91 59.89 59.09 57.93 55.32 55.41 55.50 52.80 52.72 50.28 51.85 51.05 51.21
62.95 63.54 64.22 64.45 64.67 64.17 62.49 61.74 62.09 61.75 62.83 64.03 64.82 65.32 64.77 63.97 63.57 62.78 61.85 60.84 59.25 58.56 57.32 56.27 53.83 54.24 53.81 51.87 49.28 47.21 49.98 51.46
63.43 63.70 64.08 64.35 65.02 64.17 62.55 60.20 58.81 61.19 62.36 63.70 64.19 64.19 62.91 62.49 62.58 62.03 60.72 60.18 58.75 58.08 57.67 57.29 55.46 52.89 53.14 52.83 52.58 50.27 45.76 46.13
64.45 63.75 63.71 64.31 64.92 64.82 64.03 62.11 61.50 62.42 63.40 63.54 64.22 63.79 63.08 62.81 62.26 61.05 59.59 58.87 58.99 57.80 57.83 56.53 54.50 53.51 53.00 50.72 48.39 49.21 50.10 46.55
64.93 63.67 63.60 64.29 64.88 64.82 64.85 63.80 62.55 61.28 63.43 63.00 63.36 63.53 62.83 62.06 60.34 60.00 59.14 58.24 57.69 57.53 57.56 55.49 54.55 52.69 48.23 47.92 49.20 48.27 47.73 46.85
65.24 63.84 62.87 63.94 64.48 64.77 64.94 64.67 64.20 63.05 62.68 63.46 62.15 61.55 61.33 60.73 59.76 58.04 56.11 56.14 55.76 57.40 56.00 53.62 50.38 48.30 47.95 49.01 49.32 48.60 47.48 46.40
64.90 64.59 64.00 63.68 62.28 63.36 65.40 65.26 65.59 64.66 64.26 63.76 62.97 62.36 62.25 59.71 56.18 55.10 55.53 55.15 55.30 52.46 48.79 50.34 50.24 48.75 47.27 45.41 45.77 46.30 46.76 47.04

GFSFLT2_sfc_wetblb_054.txt.gz
Wetbulb
66.19 66.72 67.21 67.01 66.84 67.21 67.34 67.85 68.17 68.19 68.11 67.80 68.06 68.33 68.52 68.87 68.32 67.51 66.99 66.24 65.86 65.07 64.50 63.76 62.48 61.33 60.57 60.01 60.64 61.80 56.09 56.97
64.76 65.08 64.83 63.98 64.11 65.53 66.21 67.04 67.12 67.14 66.77 66.19 66.17 67.04 67.26 66.94 66.44 66.44 65.99 65.92 65.37 64.49 63.64 62.62 61.65 60.02 59.22 58.88 59.98 60.39 55.55 55.87
64.02 63.60 62.87 62.38 62.23 64.21 65.68 66.89 66.31 65.73 65.38 64.82 63.57 64.43 64.57 64.40 64.92 65.23 65.33 64.96 64.39 63.75 62.68 61.42 60.46 59.63 59.54 59.82 59.26 54.34 54.31 53.92
62.35 62.23 61.91 60.68 60.74 62.13 63.06 64.45 63.82 63.09 62.05 61.60 61.00 61.27 62.35 63.57 64.54 64.70 64.39 63.72 63.44 62.73 62.05 60.96 59.89 54.60 54.44 58.14 54.13 54.39 53.74 52.33
59.08 60.57 61.18 61.24 60.83 61.78 61.83 62.09 62.07 62.61 62.61 62.04 62.42 61.51 61.43 61.58 61.26 61.27 60.66 61.03 58.18 58.98 58.58 57.15 58.27 57.25 56.03 54.91 54.11 52.27 51.59 50.68
58.01 58.51 59.00 59.23 59.44 59.45 60.15 60.21 60.49 61.08 63.40 63.50 62.15 61.51 61.38 60.09 59.51 59.66 58.42 58.53 56.83 57.94 57.61 58.91 57.63 56.80 55.56 54.06 52.75 51.62 50.55 50.35
57.59 58.43 57.39 56.97 56.83 58.20 58.97 59.61 60.28 61.68 62.55 63.44 63.61 61.64 61.81 60.89 60.63 60.06 59.49 60.16 58.63 59.25 58.40 57.56 56.83 55.79 54.84 53.27 51.99 51.07 51.29 53.32
56.97 57.29 57.73 57.23 55.93 57.22 57.59 59.19 60.30 61.10 62.58 62.88 63.80 62.78 62.77 62.23 62.73 61.68 61.07 61.17 60.69 59.84 58.23 57.28 56.34 55.09 52.92 51.79 51.04 50.69 51.08 51.47
56.86 57.32 58.30 57.92 57.24 58.68 58.61 59.35 61.19 61.56 61.87 62.92 62.59 63.06 62.50 61.85 61.82 61.38 61.20 61.35 60.82 59.45 58.03 57.77 55.71 55.48 52.25 51.17 50.74 50.54 50.76 50.85
57.07 57.47 57.05 56.48 56.23 57.16 56.77 57.83 61.36 61.04 61.67 61.99 63.36 63.40 62.88 62.14 61.63 61.80 62.02 61.42 59.77 58.56 57.16 55.82 55.51 53.66 50.98 49.86 49.48 49.82 49.70 50.14
56.77 56.68 55.61 54.77 55.44 55.91 58.51 59.01 60.82 60.62 60.55 62.14 63.20 63.33 63.33 62.61 62.71 61.96 62.08 60.49 59.09 58.13 56.95 56.70 54.48 52.32 51.27 50.14 49.68 49.35 49.16 50.50
57.26 56.54 56.92 56.33 55.92 57.69 58.64 60.00 60.69 60.62 59.89 61.79 63.36 63.44 64.09 63.20 62.57 62.27 60.72 59.52 58.71 57.79 56.44 56.55 54.69 52.28 52.96 50.68 50.35 49.74 48.74 47.54
57.26 57.35 57.67 56.96 58.60 57.90 57.88 58.34 58.87 59.10 60.48 62.77 63.48 63.42 63.60 63.16 62.48 61.65 60.34 59.24 58.07 58.07 56.37 54.62 52.13 51.26 49.16 49.00 49.85 49.69 48.38 47.74
58.37 58.46 57.08 57.97 59.93 60.19 58.48 58.76 59.98 60.15 60.97 62.73 63.76 63.77 63.65 63.22 61.70 60.65 59.72 59.20 58.58 57.16 55.91 52.62 51.90 52.02 48.38 48.38 44.80 46.52 47.35 48.27
59.89 60.31 59.82 60.36 61.27 61.44 60.61 59.22 59.28 59.55 60.12 61.89 62.80 62.96 62.76 62.42 61.96 60.81 59.97 59.28 57.30 56.85 55.88 53.55 50.34 52.08 49.95 47.65 44.63 43.14 43.82 46.37
61.47 61.64 61.66 61.78 62.64 61.62 60.30 58.27 56.24 58.21 59.06 61.47 62.15 63.33 62.71 62.49 61.69 61.10 60.10 58.81 57.19 56.50 55.90 54.46 53.75 50.24 50.52 50.07 48.57 45.87 41.64 42.52
61.49 62.02 62.02 62.28 62.90 62.90 61.07 59.48 58.82 58.70 60.03 60.03 62.05 62.75 62.50 61.73 60.86 60.21 58.99 58.14 57.10 56.07 54.55 54.39 53.52 51.61 50.17 48.83 45.23 45.48 46.71 43.89
61.74 61.89 61.91 62.38 63.15 63.31 62.19 60.67 59.82 58.66 59.57 59.98 61.48 61.76 61.24 61.04 60.72 59.90 58.65 57.40 57.19 56.35 55.58 54.31 52.54 50.80 47.62 46.11 46.32 45.53 45.06 44.75
61.81 61.92 61.65 62.24 62.28 62.95 62.26 62.44 62.06 60.17 60.05 60.62 60.75 60.79 60.42 60.32 59.60 58.27 57.68 57.32 56.07 55.02 54.21 52.36 50.58 46.97 46.63 46.87 46.73 44.91 45.22 44.04
61.71 61.71 61.57 62.40 62.18 62.84 62.70 62.69 62.73 61.71 61.30 60.87 61.04 60.91 60.56 60.51 59.48 58.62 56.47 55.35 54.64 53.41 50.67 48.31 48.32 47.81 47.43 44.37 45.01 44.57 45.14 45.60

GFSFLT2_sfc_wetblb_057.txt.gz
Wetbulb
67.20 67.52 67.65 67.07 66.87 67.03 67.33 68.19 68.40 68.70 69.02 69.32 69.16 68.75 68.50 67.83 67.41 66.95 66.51 65.86 65.14 64.26 63.53 62.47 62.02 61.61 61.44 61.30 61.17 61.25 57.11 57.84
65.00 65.61 65.37 64.91 64.85 65.68 66.43 66.83 67.09 67.18 67.79 67.70 67.78 67.77 67.97 67.08 66.54 66.44 66.01 65.36 64.68 63.51 62.64 61.52 60.66 60.18 59.78 59.52 59.82 59.21 56.34 56.81
63.66 62.79 62.62 62.22 62.33 64.58 66.82 67.00 66.35 66.02 66.58 65.82 64.93 65.27 64.65 63.95 65.18 65.38 65.23 64.66 63.99 63.16 62.05 60.86 59.84 59.02 58.39 59.55 57.18 52.04 52.96 54.54
62.22 61.49 61.11 61.01 60.74 63.48 64.00 64.47 63.13 62.26 61.77 61.04 63.24 62.15 63.42 64.24 64.45 64.45 64.33 63.84 63.22 62.75 61.51 60.40 57.91 52.27 53.04 56.06 51.19 50.67 51.12 52.82
61.08 60.56 59.90 59.82 60.32 61.25 61.75 62.53 62.30 60.52 60.64 60.57 61.55 62.32 62.03 61.98 61.26 60.85 60.17 61.34 58.95 59.63 58.39 55.31 55.48 53.70 52.40 50.65 49.97 49.41 47.31 49.14
59.35 59.48 58.56 58.84 59.72 59.96 60.44 60.98 60.82 60.12 61.41 60.70 60.36 59.83 59.49 58.84 58.50 58.32 57.00 56.92 54.92 55.42 54.97 56.01 54.22 53.72 52.19 50.74 49.33 48.16 47.25 47.40
57.81 58.21 58.21 58.13 58.43 59.00 58.78 59.39 60.26 61.06 61.71 61.63 60.95 59.44 58.42 58.25 58.19 57.34 56.98 57.15 54.95 55.81 56.06 55.41 53.59 53.09 51.57 50.28 49.24 48.24 48.89 49.24
56.06 56.18 57.14 57.65 57.32 57.73 58.06 58.80 59.45 59.88 60.99 61.94 60.99 60.47 58.89 58.97 59.05 57.30 57.28 57.89 56.34 57.34 55.45 54.51 53.56 51.97 49.75 49.12 48.85 48.57 50.11 50.00
55.92 55.73 56.70 56.70 56.21 56.77 57.37 58.26 59.35 59.05 60.39 61.35 60.99 61.02 60.71 60.17 60.72 59.24 58.72 58.99 57.81 56.60 55.66 54.80 53.70 52.39 49.66 48.61 48.51 48.20 48.46 49.73
56.92 57.54 55.38 55.54 55.78 56.08 57.19 58.49 58.56 59.09 59.71 59.80 60.44 61.00 61.13 60.11 59.45 59.50 58.83 59.15 57.80 55.98 54.97 53.69 52.99 50.08 47.70 47.27 47.74 47.75 47.70 48.38
56.01 56.33 54.94 55.26 56.93 57.14 57.04 57.38 58.48 58.75 59.04 59.44 60.32 61.48 61.88 59.44 59.94 59.64 59.76 58.39 56.88 56.14 54.90 53.98 52.66 50.74 48.38 47.35 46.60 46.73 46.53 49.15
55.09 55.79 55.50 55.91 56.35 55.47 55.09 55.67 56.08 57.91 57.61 58.55 61.06 61.21 61.45 60.87 60.43 60.25 59.16 57.61 56.55 55.49 54.24 54.36 53.15 50.17 51.48 48.97 46.43 46.83 46.01 44.96
54.49 53.81 53.20 53.66 53.11 52.87 53.39 54.16 55.08 57.37 57.88 58.31 60.54 61.25 62.23 61.61 60.85 59.81 58.74 57.23 56.26 55.59 54.01 53.27 51.33 49.89 46.90 46.06 46.32 46.40 45.97 45.03
53.77 53.94 53.01 52.73 53.02 54.17 55.21 55.63 56.18 57.47 57.92 58.26 61.35 61.64 61.88 61.30 60.57 59.40 58.46 57.07 56.23 55.27 53.88 51.51 50.42 49.01 45.92 46.47 45.02 45.22 45.38 45.45
53.83 54.74 54.03 54.41 54.96 56.34 56.55 55.46 56.24 57.14 57.15 56.85 61.05 61.38 61.49 61.39 60.48 59.24 58.38 57.53 56.31 54.83 53.72 51.46 49.05 49.33 48.10 47.35 43.34 41.52 42.15 44.01
55.52 56.24 55.47 55.18 56.96 57.24 56.79 55.51 54.32 56.91 57.47 57.66 59.73 60.97 61.19 61.55 60.91 59.39 58.31 58.15 55.84 55.13 54.70 52.24 50.06 49.29 48.15 50.37 48.66 45.95 41.94 41.53
56.21 56.97 55.59 55.69 56.13 58.23 57.93 57.63 56.46 56.24 57.48 56.47 59.29 60.68 61.06 61.04 60.52 59.28 58.06 57.69 55.94 54.95 53.56 52.38 53.21 51.08 48.25 47.77 46.51 45.48 45.45 43.26
57.65 57.44 57.47 57.02 57.77 58.62 59.04 58.78 56.06 54.86 54.80 55.72 58.45 59.67 60.40 60.22 59.53 58.09 57.51 56.28 55.51 55.29 55.41 54.31 54.26 51.44 49.34 48.25 46.68 44.92 44.76 45.13
58.44 58.62 58.45 59.38 59.15 59.56 59.70 59.62 59.07 57.03 56.54 56.43 57.57 58.96 58.37 59.19 59.75 57.25 56.22 56.28 56.81 55.80 54.64 53.22 52.10 47.78 46.71 47.29 47.69 45.91 45.59 44.31
58.46 58.65 58.85 59.55 59.46 59.87 60.47 60.75 60.62 59.36 58.80 57.97 58.76 59.26 59.82 59.97 59.23 58.39 57.45 56.79 55.25 54.24 53.64 51.25 48.85 47.88 47.82 46.09 44.78 45.01 45.85 45.85

GFSFLT2_sfc_wetblb_063.txt.gz
Wetbulb
66.60 66.80 67.30 66.77 66.20 65.73 65.64 66.22 67.44 67.62 68.18 67.89 67.80 67.12 66.59 66.46 65.92 65.37 64.63 64.10 63.68 63.49 63.82 64.51 64.16 63.20 62.48 61.60 60.72 59.77 54.56 55.20
65.76 65.44 65.70 64.73 64.84 64.27 63.79 64.58 66.34 66.88 67.64 67.33 66.64 66.34 66.26 65.67 64.99 64.44 63.86 63.56 63.28 63.03 62.91 63.53 63.83 62.75 62.04 61.36 60.80 59.06 54.42 54.73
65.30 64.81 63.97 63.11 62.42 62.16 63.00 64.35 65.72 66.23 66.59 66.31 65.02 64.58 63.41 62.10 63.59 63.67 63.41 63.04 63.04 61.92 61.11 62.63 62.75 62.32 61.91 60.71 58.31 54.70 54.62 54.84
63.95 63.26 62.39 61.93 61.38 61.26 60.59 61.27 62.15 63.63 64.44 64.76 63.99 62.29 61.31 62.19 62.68 63.24 62.83 62.34 62.06 61.82 60.45 58.95 56.17 55.10 56.97 56.91 53.25 54.29 54.99 55.27
61.70 62.15 62.69 61.39 61.34 60.69 59.74 60.62 61.99 63.40 63.79 63.19 62.69 61.85 61.67 60.20 60.02 59.20 58.22 59.26 55.79 54.77 54.22 52.50 50.75 50.20 49.11 49.83 51.48 52.99 53.87 55.87
60.54 61.36 61.66 61.73 62.24 61.58 62.97 63.18 63.42 63.56 62.88 62.84 61.86 60.26 59.49 58.55 58.07 57.57 56.54 55.52 54.35 53.71 53.82 52.05 50.09 48.87 48.34 48.10 48.03 49.00 51.45 54.14
59.31 60.11 60.48 60.88 61.12 61.10 60.99 61.24 61.42 61.83 62.10 62.42 61.28 58.93 58.13 57.72 57.05 55.66 54.58 54.50 53.23 53.68 52.63 51.73 50.30 49.07 47.29 46.84 45.51 45.61 48.46 51.69
58.83 59.37 59.61 60.16 60.31 59.97 59.49 60.19 59.92 60.65 60.71 60.38 59.79 58.70 57.60 56.92 55.93 54.67 53.63 53.41 53.58 53.93 52.62 51.17 50.46 48.85 46.80 46.52 46.30 45.20 45.73 47.32
57.55 58.13 58.96 58.87 58.67 58.98 58.72 60.12 60.56 59.99 59.93 58.88 57.90 57.95 57.28 56.54 55.62 54.65 54.05 54.74 53.29 54.28 52.72 51.41 49.01 48.42 47.35 46.77 46.83 47.77 46.64 46.93
57.50 58.52 58.02 57.71 57.79 57.72 58.33 58.33 59.16 59.96 59.63 58.75 57.67 57.24 57.04 56.57 55.76 54.97 55.04 55.09 53.61 54.07 53.00 51.63 49.79 48.13 46.06 45.23 46.28 47.71 48.10 46.89
56.89 56.88 56.96 56.40 56.70 56.68 57.08 57.06 57.01 58.08 58.81 58.67 58.03 58.14 58.09 57.00 56.66 56.10 55.71 55.45 55.11 54.81 53.29 52.25 50.30 48.37 46.69 45.33 45.08 45.66 46.71 48.73
56.10 56.20 56.30 56.15 55.94 56.06 56.35 56.69 56.48 56.94 56.84 58.22 58.98 58.84 59.16 57.75 57.58 57.58 57.43 56.40 55.43 54.37 53.15 52.09 50.92 49.28 49.56 47.09 44.90 44.75 44.09 44.63
55.01 55.09 54.52 54.39 54.03 54.60 54.81 54.90 55.61 56.14 56.49 57.49 58.62 58.53 59.72 58.59 57.93 57.45 57.54 56.88 56.13 54.44 52.28 51.74 51.08 49.76 46.33 44.67 44.37 44.10 43.93 42.98
54.23 53.47 53.13 53.54 54.26 54.54 53.75 55.65 55.40 55.66 56.69 57.00 57.35 58.17 58.39 58.91 58.24 57.93 57.90 56.66 55.05 53.33 52.28 51.03 51.22 48.24 46.28 43.74 41.80 43.59 44.87 44.67
53.97 52.88 53.19 53.74 53.60 54.73 52.43 53.27 53.98 53.47 53.79 55.27 55.85 56.67 58.12 58.85 58.66 58.07 57.52 56.86 55.51 53.68 52.77 52.24 50.81 49.56 47.08 47.54 42.32 41.13 41.93 43.29
53.42 53.46 53.01 53.78 53.84 51.61 51.38 51.43 51.85 53.20 54.15 53.01 53.88 56.53 57.21 58.26 58.71 58.48 57.66 57.18 55.23 54.70 54.86 53.17 52.43 49.98 49.19 48.51 47.72 46.24 43.44 42.70
52.95 53.21 52.90 53.34 53.60 52.72 52.39 51.37 52.38 52.34 51.55 51.52 52.47 54.24 56.88 57.79 57.75 57.32 57.54 57.26 57.06 55.83 54.23 53.12 53.45 52.33 51.53 47.78 47.68 46.90 46.00 44.39
52.72 52.91 52.52 52.92 53.05 52.18 51.95 51.85 51.87 51.72 50.55 51.56 53.03 53.67 54.60 56.42 57.77 57.66 57.95 57.71 57.00 56.66 56.34 55.03 54.54 54.07 51.70 50.75 48.52 46.67 45.73 43.41
52.06 52.57 52.34 52.49 52.40 52.40 51.78 52.23 52.21 52.04 52.14 52.59 52.76 53.58 54.15 55.20 56.84 57.71 58.01 58.01 57.81 57.10 56.19 55.97 54.18 53.07 51.49 51.51 50.86 49.78 48.47 46.87
52.11 51.69 52.15 52.95 52.16 52.02 52.53 52.67 53.43 53.72 54.12 53.67 53.65 54.29 54.98 55.37 55.96 57.57 57.94 57.63 56.58 56.30 56.10 54.73 53.62 53.11 51.97 50.04 49.79 49.24 47.65 47.08

GFSFLT2_sfc_wetblb_066.txt.gz
Wetbulb
64.81 65.13 66.34 66.70 66.37 66.65 66.32 65.92 67.08 67.73 67.90 67.69 67.49 66.81 66.65 66.72 66.22 65.25 65.25 66.38 66.58 65.58 64.42 64.15 63.62 62.66 62.31 61.55 60.90 59.82 55.48 56.07
64.77 64.55 64.90 63.05 63.89 64.87 65.18 64.40 66.54 67.55 67.54 67.02 66.32 66.20 65.93 65.28 64.34 64.11 64.29 65.33 65.75 65.15 64.24 63.76 63.26 62.53 61.88 61.33 60.79 59.13 54.93 55.45
64.05 63.88 63.52 62.95 62.98 63.40 63.82 65.10 65.12 66.19 66.90 66.15 64.66 63.54 62.21 60.40 62.24 63.28 63.51 63.53 64.20 64.57 64.14 63.05 62.38 62.18 61.79 60.86 58.34 54.97 55.47 55.77
63.62 63.43 62.68 62.86 63.01 62.42 62.02 63.41 63.41 63.37 64.73 63.79 63.26 61.41 59.97 60.91 61.95 62.49 62.42 62.14 62.85 63.92 63.62 62.51 60.64 58.07 58.69 57.96 54.54 54.93 55.30 56.06
62.52 62.27 61.67 60.93 60.15 59.92 60.98 62.68 62.51 62.67 63.44 63.23 61.87 61.10 60.85 59.43 58.50 57.87 58.61 58.46 56.23 57.95 56.45 53.96 53.05 52.70 51.95 53.11 54.42 54.79 55.21 56.33
61.90 61.67 60.85 60.51 59.46 58.43 59.78 60.33 61.50 61.87 62.06 62.42 60.83 59.97 58.08 57.65 56.39 55.28 53.36 52.89 52.81 52.48 50.39 50.18 50.09 50.08 51.43 51.91 53.23 53.49 54.51 55.84
60.09 61.75 61.03 61.04 59.40 58.92 58.87 59.56 60.58 61.09 61.39 62.24 60.53 58.59 57.04 56.00 55.73 54.45 53.54 52.47 53.43 51.52 50.24 49.78 49.42 48.35 48.62 49.90 50.37 51.79 53.59 54.99
59.69 60.21 61.56 61.35 60.19 60.74 61.05 61.91 61.87 62.14 62.34 61.91 59.69 58.39 56.87 55.76 55.02 54.12 53.39 52.64 53.33 52.23 50.92 49.52 47.88 47.47 46.61 46.63 46.32 47.69 50.56 52.85
58.61 59.01 60.60 60.11 60.48 60.24 60.77 61.22 61.59 61.86 61.57 60.32 58.58 57.77 56.02 55.52 54.24 53.48 53.67 53.20 54.31 52.63 51.10 50.11 47.58 47.77 46.51 46.74 45.71 45.74 46.12 48.86
58.24 59.42 58.81 58.81 58.89 58.55 59.73 60.62 60.85 59.97 59.86 59.17 58.02 57.66 56.46 55.15 54.67 53.87 54.48 53.74 54.79 53.13 51.51 49.88 48.16 46.90 45.50 45.70 46.75 48.47 47.21 46.91
57.72 58.06 58.00 57.64 57.64 58.12 58.22 58.28 59.22 59.58 59.23 58.42 57.34 57.22 56.90 55.85 55.17 54.53 55.25 54.96 54.01 54.02 52.58 51.61 49.64 48.47 46.41 45.48 45.66 46.72 48.17 47.90
56.97 57.20 57.02 57.14 57.04 57.30 57.22 57.08 57.23 58.96 58.88 57.92 57.52 57.61 57.59 56.97 56.49 56.01 55.75 55.42 54.38 53.73 52.61 52.03 51.51 50.15 49.19 47.14 45.61 45.62 45.64 46.43
55.98 56.00 56.00 56.08 55.92 55.66 55.56 55.06 55.98 56.72 57.28 58.15 58.19 58.14 58.14 57.66 57.27 57.14 57.07 55.70 54.87 54.26 52.85 52.14 51.19 50.04 47.31 46.28 46.00 45.36 44.48 44.04
55.19 55.22 54.91 55.19 55.74 56.50 56.03 56.20 55.22 55.78 56.65 56.96 58.41 59.01 59.43 58.85 57.79 57.30 57.14 56.84 56.06 54.36 52.93 51.38 51.54 49.32 47.44 44.73 44.13 45.10 45.15 44.76
54.20 54.14 54.12 54.04 54.71 54.64 53.98 55.76 54.26 53.70 54.19 55.28 56.25 57.46 58.48 58.50 58.42 57.53 57.38 56.92 55.54 53.63 52.82 52.42 50.77 49.73 48.01 49.35 43.73 42.16 43.09 44.83
54.22 53.52 52.87 53.11 52.75 51.95 51.39 54.15 53.83 53.88 53.93 54.37 55.50 56.76 56.97 57.61 58.26 57.82 57.09 56.66 56.00 55.17 54.14 52.51 51.63 49.89 49.16 48.73 47.39 45.93 43.55 43.93
53.93 53.75 52.31 53.46 53.16 52.24 51.80 50.89 54.55 53.15 53.30 52.97 53.04 54.42 56.05 56.13 56.56 57.01 57.04 56.94 56.58 55.30 53.78 52.92 52.73 51.86 50.42 48.09 48.13 47.48 46.66 46.83
52.78 52.94 52.67 52.65 52.95 51.78 51.32 51.24 51.05 51.15 49.56 49.95 50.81 51.35 52.67 54.61 55.90 55.88 56.08 55.52 55.56 55.76 55.22 53.90 54.10 53.77 52.07 50.95 48.97 47.00 46.10 46.15
52.20 51.91 51.74 52.37 52.24 52.31 51.29 51.44 51.26 51.27 51.30 50.08 49.99 51.01 51.64 52.54 54.29 54.80 55.22 55.72 55.68 55.76 54.40 53.69 53.85 53.71 53.82 52.52 52.35 51.33 50.40 49.10
51.40 51.70 51.93 52.05 52.25 51.96 52.11 51.71 51.82 51.76 51.14 51.83 50.74 51.05 51.28 52.11 52.99 54.57 55.12 55.48 55.24 54.60 54.65 55.21 55.23 54.65 54.25 53.51 52.95 52.28 50.58 49.10

GFSFLT2_sfc_wetblb_069.txt.gz
Wetbulb
66.55 67.74 67.77 67.61 67.34 66.84 67.11 68.02 68.21 68.12 67.83 67.84 67.83 67.45 67.36 67.08 66.18 66.41 67.52 67.48 66.75 65.75 64.80 64.24 63.64 63.13 62.70 61.86 61.27 61.92 61.75 61.66
65.64 67.08 66.28 67.83 68.32 66.32 66.11 66.51 66.59 66.59 67.40 66.79 66.47 66.71 66.74 65.83 65.44 66.66 67.27 66.67 65.70 64.86 64.24 63.63 63.26 62.86 62.12 61.51 60.97 61.20 61.34 61.06
66.35 65.92 64.27 64.31 65.32 65.59 64.57 65.04 65.02 65.23 65.80 66.03 65.43 67.09 65.49 63.56 63.68 66.04 66.52 65.42 64.51 64.26 63.74 63.21 62.47 62.27 61.94 61.10 60.75 60.74 61.06 61.12
64.29 64.19 62.61 63.15 63.66 61.90 61.67 61.78 61.18 62.77 64.16 65.97 65.88 64.48 63.62 62.24 63.49 64.56 65.19 64.75 64.03 63.81 63.10 62.51 61.30 60.87 61.14 59.86 60.33 60.93 60.69 60.94
62.92 63.30 63.26 62.54 62.62 62.58 62.76 62.19 61.37 62.50 63.32 64.11 64.30 62.93 62.59 62.27 62.70 62.91 64.38 64.18 63.47 62.67 62.01 60.48 60.70 60.14 59.49 59.62 60.44 60.66 60.69 60.74
62.66 62.84 62.08 62.42 62.27 61.87 62.97 61.91 61.87 62.30 64.00 64.76 62.90 61.42 60.26 60.64 59.91 60.04 60.74 62.96 63.19 61.89 60.26 59.60 59.56 59.30 59.31 59.56 59.96 59.98 60.58 60.77
61.59 61.75 61.22 60.54 60.07 60.98 61.95 61.26 61.10 62.19 62.98 63.84 61.40 59.06 57.95 59.63 59.28 57.93 58.47 60.08 60.11 59.50 59.12 58.18 57.86 58.26 59.01 59.08 59.21 59.76 60.53 60.45
60.26 61.03 60.72 59.71 59.03 59.91 60.59 61.29 62.57 62.83 62.53 62.79 61.48 59.51 60.01 59.01 58.46 57.84 57.80 58.38 58.06 57.69 57.26 56.61 56.60 57.06 56.87 57.90 58.38 59.25 60.13 60.53
60.36 60.87 61.27 59.47 59.06 59.65 60.48 61.61 61.61 61.54 61.81 61.42 60.23 60.57 60.58 60.18 58.43 57.63 58.29 57.90 57.12 56.19 55.78 55.19 54.07 53.99 53.98 55.04 56.41 58.15 59.07 59.91
60.75 60.43 60.53 60.14 59.95 60.58 60.93 62.16 62.07 62.34 62.10 60.52 59.73 60.61 60.46 59.74 58.13 58.05 58.72 58.83 57.42 55.92 54.58 53.42 53.36 53.23 52.86 52.45 52.51 53.53 55.53 58.17
59.29 59.59 58.82 59.77 60.43 60.90 60.70 61.23 61.36 61.13 60.62 59.86 59.96 59.88 60.38 59.65 58.67 58.19 58.97 58.85 58.00 57.07 56.18 55.13 53.18 52.52 52.12 52.26 52.80 53.36 53.98 52.73
58.45 58.82 58.15 58.69 58.87 58.91 59.49 60.67 61.18 60.87 60.07 59.36 58.99 59.77 59.48 59.54 59.10 58.66 58.97 58.90 58.32 57.85 56.97 56.83 55.51 53.96 51.35 51.20 52.57 52.86 53.93 53.94
57.84 57.07 57.63 57.68 57.76 58.80 56.91 56.59 57.52 59.19 59.17 59.20 58.11 58.85 59.16 58.73 58.54 58.94 59.16 58.32 58.19 58.64 58.15 56.68 56.11 55.65 53.11 53.31 53.04 52.71 52.79 52.81
56.94 56.99 56.72 57.35 57.98 57.97 58.05 58.13 57.96 57.88 58.97 58.85 58.44 58.88 59.37 59.11 58.15 58.92 58.66 58.83 58.77 57.76 57.65 56.80 57.26 55.50 54.96 53.51 52.74 53.52 52.99 52.65
56.16 57.13 56.50 56.92 57.24 56.31 56.82 55.93 56.09 56.43 56.87 57.27 58.13 58.52 59.40 59.12 58.99 59.91 59.66 59.96 59.00 58.59 58.01 58.02 56.96 55.66 55.51 56.36 51.27 51.85 53.07 53.28
56.97 56.99 56.82 57.97 57.23 55.26 56.06 55.19 53.58 55.44 56.20 57.13 57.48 58.60 59.32 60.04 60.04 59.91 59.44 60.21 59.94 59.04 59.80 59.05 58.59 56.71 54.79 54.22 54.55 54.34 52.96 52.31
57.03 57.22 57.07 57.19 57.31 57.14 56.32 55.87 56.15 55.58 54.94 55.55 56.74 57.09 58.00 58.70 59.84 59.35 59.87 59.30 59.51 60.54 59.24 58.50 58.43 58.01 56.49 55.22 54.54 53.39 53.44 52.86
56.26 55.82 55.98 57.02 56.32 56.66 56.66 56.93 57.06 54.28 54.30 55.36 54.88 55.74 57.13 57.89 58.45 60.40 60.88 60.64 60.80 60.73 60.38 59.92 59.23 58.69 58.56 57.44 55.99 54.25 52.05 49.35
54.73 54.77 54.59 55.88 56.22 55.62 55.83 56.18 57.08 56.76 55.22 56.00 54.31 54.47 55.24 57.06 59.11 59.33 59.54 59.95 60.12 60.64 60.32 60.05 59.74 59.12 58.84 57.86 56.42 54.66 52.56 52.07
54.18 53.26 53.31 54.61 56.12 55.96 55.84 56.34 56.57 57.23 57.38 56.40 56.27 57.03 57.23 57.96 58.35 58.97 59.29 59.66 59.90 60.34 60.39 60.38 60.28 60.04 59.37 58.60 55.43 54.67 54.52 54.17

GFSFLT2_sfc_wetblb_075.txt.gz
Wetbulb
71.26 70.68 68.20 67.59 67.44 65.10 64.30 67.89 68.86 69.35 69.47 69.34 68.96 68.33 67.77 68.24 68.19 68.27 67.46 66.86 66.72 66.06 65.56 65.04 64.72 63.83 63.33 62.92 62.01 63.55 63.80 63.24
69.33 70.34 70.08 69.27 69.42 66.71 66.52 67.15 67.60 68.14 68.48 68.24 67.49 67.40 67.68 67.79 67.63 67.41 66.95 66.44 65.91 65.09 64.93 64.56 63.70 63.26 62.43 62.28 61.51 62.48 63.39 62.55
66.63 69.54 69.85 70.34 69.58 68.59 67.11 66.82 67.04 66.91 67.51 66.91 65.60 66.38 67.09 67.42 66.67 66.33 66.19 65.57 65.31 64.85 64.32 63.73 62.94 62.57 61.94 61.97 62.05 63.34 63.26 62.60
68.41 68.54 68.36 68.41 66.48 65.97 65.85 67.22 68.02 66.39 66.34 65.68 64.50 64.61 67.20 66.64 66.41 65.39 65.00 64.61 64.30 64.02 63.64 62.72 61.84 60.82 61.37 61.20 62.55 63.15 62.96 62.18
67.45 68.09 68.20 67.39 66.97 67.09 66.52 65.81 65.46 65.59 63.63 63.51 63.94 64.33 65.63 65.95 66.13 65.41 64.09 62.99 61.70 62.01 61.82 61.04 61.46 60.60 61.51 62.96 62.75 63.06 62.75 61.89
66.84 66.29 65.49 65.25 64.49 63.34 64.59 65.30 63.85 62.83 62.03 62.89 63.72 62.91 64.85 66.31 64.96 64.82 62.43 61.81 61.34 60.88 60.94 62.97 62.35 61.52 62.29 62.40 62.61 62.43 62.40 61.78
65.98 66.01 65.00 64.65 63.20 61.27 61.23 61.45 62.25 62.98 62.68 62.57 63.02 62.55 63.72 64.31 65.03 64.45 62.87 63.54 62.36 61.21 62.21 61.79 61.84 61.61 61.82 62.16 62.35 62.60 62.58 61.71
64.46 65.58 64.41 63.86 63.10 62.41 60.91 60.33 60.39 61.11 61.65 62.40 62.62 62.42 62.57 64.63 64.63 64.35 64.23 64.53 63.12 62.39 61.96 61.31 60.68 61.06 61.33 61.91 62.10 62.64 62.56 62.17
63.39 63.25 64.96 63.04 63.18 62.56 61.22 59.78 60.01 61.22 60.94 61.91 61.72 62.38 63.49 64.20 64.91 64.77 64.42 65.01 65.07 63.63 61.82 60.94 60.13 60.35 60.60 61.10 61.61 62.16 62.50 62.31
62.75 63.13 62.07 62.41 62.20 61.17 60.51 59.77 59.41 60.64 61.80 61.57 61.61 62.24 62.68 63.55 63.24 64.05 64.91 64.61 63.71 61.70 60.49 59.48 59.42 59.42 59.48 59.96 60.47 61.10 61.63 62.04
62.11 61.36 60.68 60.52 60.98 60.98 61.12 60.08 60.55 60.86 61.49 60.92 61.08 61.82 62.72 62.67 62.17 62.71 64.07 62.71 62.95 61.51 60.48 59.43 58.28 58.32 58.48 58.86 59.35 59.49 60.54 60.59
61.86 61.20 61.29 60.11 60.17 61.05 60.80 60.75 60.59 61.11 60.66 60.70 61.53 62.38 62.67 62.56 61.76 61.72 61.22 60.99 60.78 60.45 61.04 60.16 59.19 58.23 56.75 56.80 57.35 57.99 58.71 59.37
62.31 60.26 60.79 60.20 59.85 59.14 58.82 58.52 59.31 60.78 60.48 59.93 60.88 61.52 61.91 61.78 61.75 62.77 62.72 61.09 60.90 62.28 60.59 60.30 58.81 59.52 56.86 56.42 56.95 58.99 59.06 57.88
60.92 60.26 61.05 60.28 59.37 59.89 59.92 59.61 59.68 60.53 60.55 59.53 59.38 60.35 60.74 61.03 61.32 61.43 62.30 60.85 61.95 62.19 62.03 59.75 59.92 60.38 56.50 56.69 53.82 55.39 57.90 59.19
61.21 60.33 59.65 60.53 61.09 60.96 60.31 60.34 60.04 59.34 59.38 59.89 59.30 59.82 60.21 60.95 61.47 61.90 62.17 61.94 61.16 61.61 62.27 61.16 59.07 59.61 60.42 59.24 55.07 53.72 58.08 59.40
61.08 60.22 60.33 60.09 61.05 59.51 58.44 57.14 56.48 57.74 58.55 58.64 58.51 59.09 60.38 60.35 60.93 61.11 61.73 62.15 60.46 62.83 62.81 62.27 60.82 57.70 58.67 59.73 61.11 60.72 54.77 54.36
62.09 59.70 60.67 60.16 60.68 60.30 58.24 57.68 57.90 59.36 58.72 57.89 57.53 58.02 59.34 60.06 60.34 59.54 58.67 59.87 59.94 61.46 61.51 61.57 61.07 59.19 58.39 60.67 59.41 59.20 60.30 56.44
61.49 60.05 59.86 60.63 60.22 61.53 60.29 61.00 59.13 58.09 57.79 57.23 56.66 57.13 57.74 58.76 58.90 59.05 58.38 58.94 58.06 60.42 62.13 61.40 61.44 61.08 58.43 60.94 58.72 57.85 57.13 57.41
60.74 60.66 60.61 59.93 59.95 60.77 61.03 61.29 60.88 58.51 59.51 57.22 56.92 56.08 57.13 57.47 58.62 58.30 57.35 57.20 58.89 58.99 60.58 61.33 58.92 57.81 59.53 59.69 60.64 60.38 60.84 59.55
60.33 60.34 60.57 61.39 59.98 60.22 60.44 60.70 60.51 60.98 59.84 59.81 60.22 58.38 58.17 58.55 58.18 57.62 57.03 57.56 59.67 59.64 59.05 60.36 58.79 60.54 60.87 61.62 60.53 61.17 61.54 60.48

GFSFLT2_sfc_wetblb_078.txt.gz
Wetbulb
70.42 68.68 67.71 67.18 66.57 65.79 64.40 63.89 63.33 66.08 69.47 69.71 69.30 68.41 68.28 68.55 68.44 68.31 67.89 67.11 66.58 65.99 65.62 65.24 65.07 64.22 62.76 62.32 62.30 63.40 60.46 59.99
69.94 70.71 69.10 67.80 67.79 65.38 64.55 64.69 63.61 65.84 68.69 68.57 67.43 67.42 67.70 67.73 67.21 67.24 67.17 66.82 66.26 65.37 65.08 64.85 64.12 63.12 62.20 62.20 62.00 63.64 59.83 59.50
68.28 69.14 69.19 68.76 68.56 67.53 65.40 66.00 62.49 65.80 67.79 67.07 65.60 66.50 66.88 66.88 66.19 66.07 66.19 65.81 65.55 65.01 64.27 63.52 62.79 61.85 61.99 61.85 62.15 59.86 60.22 59.54
67.25 67.49 67.98 67.21 67.19 67.04 66.00 65.35 65.52 65.08 66.01 65.88 65.90 65.62 65.63 65.56 65.39 65.15 65.13 64.98 64.54 64.18 63.35 62.45 61.22 57.97 58.53 60.39 58.42 60.82 60.09 59.22
67.55 67.81 67.84 66.73 65.87 66.36 65.00 65.75 65.50 65.43 65.24 64.13 63.86 63.85 63.88 64.44 63.87 63.41 63.06 63.32 61.90 61.62 60.39 58.58 57.24 57.43 57.99 58.52 59.52 60.53 59.55 59.24
66.19 65.99 65.41 64.91 64.49 65.12 66.00 65.48 65.09 63.54 63.25 62.92 62.03 62.03 63.14 63.73 62.58 61.34 59.80 59.92 59.24 58.72 57.94 58.33 57.20 57.77 59.17 59.61 58.95 60.12 59.04 59.11
65.25 65.36 64.68 63.65 62.37 61.91 64.45 63.63 64.09 62.83 62.50 62.59 62.15 62.26 62.11 62.69 62.42 59.22 58.64 58.69 58.22 57.23 57.81 58.90 58.73 57.82 59.33 59.25 59.45 59.89 58.82 58.87
65.55 65.11 64.62 63.22 61.93 60.88 60.08 61.48 62.46 61.49 61.75 62.59 62.32 62.46 62.84 62.38 61.97 58.61 59.24 58.99 58.12 57.74 58.97 58.55 58.02 58.41 58.62 59.28 59.77 59.67 58.90 58.38
64.46 64.62 64.45 63.36 62.25 61.10 60.76 60.48 60.57 61.28 61.15 62.13 62.19 62.02 62.29 62.07 61.59 60.08 60.55 59.89 58.68 59.19 59.04 58.11 57.26 58.32 57.98 58.51 58.99 60.27 59.19 58.62
63.71 63.65 63.62 62.76 62.62 61.50 60.36 60.35 60.46 60.25 61.06 61.39 61.55 61.50 61.77 61.96 61.49 61.04 61.74 60.38 60.15 59.48 57.78 56.48 56.37 56.38 56.17 56.61 57.41 58.14 58.90 58.30
62.50 62.24 61.54 62.17 62.25 60.54 60.11 59.53 60.28 60.09 60.23 59.22 59.08 60.87 61.16 61.06 61.12 61.95 62.56 61.29 60.60 58.79 58.00 56.34 55.86 55.39 56.19 56.07 56.18 56.44 57.61 59.28
62.09 61.31 60.47 60.54 60.91 60.25 59.20 58.88 59.90 60.70 60.32 59.86 60.24 60.58 60.97 60.45 60.58 61.34 60.40 59.93 59.07 57.84 57.35 57.12 55.30 55.57 56.19 55.60 54.52 55.61 56.44 56.37
61.31 59.92 59.57 59.95 59.53 58.85 58.09 57.81 58.85 59.78 60.23 60.21 60.31 59.98 60.14 59.97 58.82 59.31 59.04 58.16 56.85 57.53 57.78 56.17 55.30 55.88 53.61 53.04 52.54 54.01 53.99 53.88
60.62 60.60 59.87 59.57 59.80 59.60 59.41 59.04 59.18 59.28 59.99 58.73 59.49 59.55 59.82 59.46 58.84 58.37 58.01 57.19 57.17 58.37 57.53 56.16 55.95 56.01 52.90 52.26 50.22 51.99 54.04 55.30
60.38 60.43 60.28 59.71 60.06 60.05 59.51 59.06 58.97 58.37 58.59 57.68 57.88 58.68 59.68 59.38 59.81 59.22 58.76 58.13 58.74 58.38 58.44 57.29 55.33 55.58 56.68 54.97 51.66 50.24 52.11 54.03
60.63 60.19 59.91 60.18 60.01 59.21 58.33 57.04 56.07 57.46 57.82 58.54 57.79 58.57 58.67 58.22 59.42 59.52 59.40 59.44 58.65 58.89 59.97 58.69 58.40 55.62 55.97 57.35 57.35 56.61 51.65 51.03
60.27 60.16 59.30 59.92 59.89 59.54 58.89 57.60 57.67 58.21 58.60 58.69 57.98 57.77 58.49 58.83 58.48 59.76 59.27 59.50 59.63 59.65 59.29 59.62 58.59 57.21 55.85 56.45 56.05 56.01 55.63 52.98
60.06 59.39 59.91 59.40 60.01 59.82 59.19 58.64 57.78 57.19 57.53 56.94 56.82 57.07 57.42 58.17 58.99 59.07 59.35 59.08 59.15 60.27 60.32 59.38 58.05 57.48 56.76 56.32 55.22 54.36 53.95 53.48
60.17 59.16 58.66 59.83 60.05 59.66 58.89 58.81 58.44 57.72 57.31 57.17 56.48 56.39 56.37 56.86 57.91 57.89 57.75 57.86 57.94 58.48 58.11 58.03 57.78 56.52 56.42 56.16 56.52 57.02 56.15 55.67
59.50 59.25 58.46 59.75 59.15 59.23 59.60 59.59 58.90 58.77 58.52 58.29 57.18 56.40 56.59 57.36 57.47 57.57 57.15 56.99 57.05 57.02 56.82 57.05 57.15 57.17 56.52 56.37 56.22 56.62 56.92 57.16

GFSFLT2_sfc_wetblb_081.txt.gz
Wetbulb
65.55 66.06 67.00 67.06 66.30 66.27 65.46 65.12 65.67 63.52 62.75 64.86 68.29 69.13 68.80 68.93 68.69 68.72 68.25 67.56 67.11 66.69 66.34 66.01 65.54 64.46 63.39 62.01 62.85 62.45 59.31 59.60
66.24 66.67 65.53 64.88 64.51 65.13 64.40 64.16 64.18 63.35 62.91 63.47 67.98 67.83 68.07 67.98 67.95 67.60 67.18 66.98 66.39 66.18 65.46 65.11 64.37 63.19 62.08 62.49 62.30 61.94 58.84 58.53
64.81 66.84 66.69 64.91 64.79 64.25 65.02 64.53 64.24 64.25 64.42 64.59 66.18 67.00 66.77 66.60 66.40 66.21 66.27 65.94 65.52 65.28 64.84 63.86 62.86 62.34 62.17 61.84 60.89 58.86 58.84 58.99
64.21 64.65 64.52 65.39 66.76 64.12 63.71 63.98 62.78 62.66 63.00 66.05 66.11 65.71 65.09 65.29 65.60 65.44 65.51 65.11 64.89 64.22 63.56 62.72 60.20 57.19 57.61 59.46 58.81 58.61 58.53 58.67
64.31 64.58 64.32 64.51 64.61 63.99 63.99 63.89 62.80 62.19 64.02 64.96 65.07 64.90 64.61 64.34 64.11 63.76 63.45 63.31 61.72 61.04 60.12 57.91 55.96 56.13 56.28 56.54 58.21 58.35 58.44 59.07
64.41 64.66 63.65 64.09 63.50 62.91 62.73 63.78 63.78 63.41 64.33 63.97 63.31 63.17 63.23 62.87 62.24 61.92 61.58 59.11 58.07 57.27 56.38 55.96 55.06 56.57 57.13 57.75 58.10 57.72 58.02 58.37
62.80 63.76 62.92 61.45 60.53 59.88 61.84 63.10 64.07 63.77 63.71 63.63 62.72 62.80 62.67 62.02 61.44 60.10 59.21 59.18 57.37 55.84 55.89 55.50 55.22 55.93 57.16 57.29 57.58 57.66 57.79 58.06
62.07 63.03 61.88 60.21 60.36 60.15 61.78 62.47 63.32 63.17 62.60 61.96 62.17 62.99 63.13 61.48 59.10 57.83 57.44 57.66 56.25 56.27 56.77 55.49 55.08 55.85 56.43 57.26 57.67 57.47 57.73 57.53
61.34 61.80 62.05 59.77 58.86 59.84 60.51 61.66 62.21 62.02 61.98 61.73 62.06 62.69 62.53 60.67 57.50 56.51 56.43 56.35 55.24 56.64 57.00 56.64 55.68 56.74 56.09 57.02 57.77 57.23 57.40 57.52
61.91 63.35 61.73 61.01 58.84 59.24 60.18 61.02 61.20 61.68 61.52 61.54 61.87 62.10 62.33 61.08 57.34 58.04 57.14 57.38 55.60 57.33 57.20 55.26 54.97 55.18 54.52 55.30 56.38 57.04 56.72 56.96
60.76 61.32 61.73 61.39 60.20 58.76 59.64 60.07 60.39 60.74 61.38 61.19 61.19 61.79 61.83 61.51 58.81 59.28 58.27 58.27 56.68 57.96 56.49 55.41 54.43 53.90 54.32 53.97 54.64 56.54 56.39 57.13
60.20 60.23 61.52 61.18 60.05 59.31 58.96 59.68 59.88 60.51 60.36 60.50 60.88 61.19 60.91 61.30 60.47 60.53 59.95 58.39 57.50 56.45 55.90 54.76 54.61 55.26 56.62 55.00 53.75 54.88 56.31 55.86
58.99 59.51 60.13 60.36 59.14 58.08 57.36 57.86 58.74 59.07 59.28 58.95 59.40 60.04 60.22 60.34 59.84 59.96 59.84 58.79 56.80 56.23 54.63 54.39 53.07 53.93 52.14 51.06 51.34 52.18 53.09 53.74
57.67 58.60 59.72 59.73 59.71 58.91 58.39 58.21 58.95 58.96 58.93 57.60 59.31 58.99 58.94 58.61 58.96 59.01 58.15 57.21 55.98 54.93 55.05 54.53 53.44 54.08 51.29 50.45 47.30 50.02 51.56 52.01
57.83 58.12 58.96 59.30 59.88 59.60 58.95 58.83 58.75 58.45 58.26 57.68 58.34 58.42 58.61 58.80 58.23 58.48 57.17 57.48 55.67 55.70 55.76 54.71 53.34 53.92 53.73 52.56 49.85 47.84 49.48 51.33
58.45 58.71 58.39 58.91 59.80 58.80 58.02 57.01 56.13 57.82 57.59 57.06 57.71 58.12 58.28 58.40 57.60 57.56 56.64 56.57 56.01 56.68 56.96 55.99 55.33 53.03 53.96 56.23 55.26 54.32 49.81 49.25
57.65 58.77 59.16 59.47 59.47 59.19 57.96 57.28 57.52 57.78 57.92 56.63 56.64 56.98 57.71 56.48 57.50 57.36 56.61 57.18 57.20 57.08 57.10 57.25 56.89 54.68 53.01 53.58 53.50 53.66 53.77 51.23
57.43 57.46 58.42 59.00 59.23 59.25 58.19 57.44 57.14 56.69 56.75 56.60 56.13 56.42 55.14 56.16 57.42 58.17 58.01 57.54 57.50 57.49 58.02 58.08 57.92 56.62 55.51 55.12 53.79 53.08 52.49 51.60
56.92 56.73 56.39 58.87 58.73 59.09 58.88 58.21 57.69 57.00 56.98 56.68 56.25 56.12 55.59 56.07 56.56 57.83 58.37 58.55 58.32 58.79 58.30 58.24 57.46 56.68 56.65 55.63 55.83 55.50 55.65 54.72
56.87 56.51 57.04 57.27 58.88 58.69 58.67 58.99 58.19 57.90 57.85 57.51 56.87 56.87 56.61 56.38 56.87 57.79 58.12 58.36 58.06 57.78 57.89 57.91 56.86 56.70 55.46 55.46 55.39 56.07 56.40 56.30

GFSFLT2_sfc_wetblb_084.txt.gz
Wetbulb
65.28 66.16 67.28 67.48 66.88 66.68 66.12 66.48 66.78 65.99 66.26 66.01 67.16 66.93 67.56 68.24 68.39 68.81 68.59 68.31 68.20 67.85 67.08 66.07 65.55 64.59 64.35 63.21 62.46 62.18 58.69 58.69
64.18 65.69 66.21 64.86 64.48 65.90 65.59 66.26 65.19 64.66 65.92 65.66 66.86 66.73 66.97 67.73 67.73 67.96 67.85 67.60 67.38 67.08 66.03 65.39 64.63 63.43 63.31 62.61 62.11 62.04 58.07 56.90
64.85 65.42 65.63 64.43 63.36 64.31 64.95 65.10 64.44 63.98 64.99 65.21 64.75 63.62 65.92 66.61 66.57 66.85 66.98 66.36 66.15 65.92 65.13 64.25 63.17 63.45 63.04 62.28 61.31 58.64 58.09 58.13
63.46 65.63 65.28 64.58 64.14 63.41 62.77 63.44 63.14 62.28 62.91 62.13 63.63 65.72 65.55 66.34 65.79 65.79 65.95 65.59 65.19 64.77 64.04 62.89 60.02 58.52 60.54 60.99 58.38 58.33 58.58 58.02
63.02 63.72 63.98 64.50 64.63 62.92 63.10 61.84 62.14 61.17 62.08 63.21 65.07 65.19 65.63 64.97 64.47 64.14 63.73 63.84 61.77 61.47 60.68 56.46 55.80 56.53 57.73 57.90 57.81 58.06 58.22 58.50
62.84 63.28 62.66 62.40 63.93 63.80 62.88 62.57 61.13 61.31 63.90 64.62 64.75 64.42 63.86 63.67 63.19 62.74 61.81 59.73 58.19 56.97 55.56 54.48 54.96 56.02 57.89 57.59 57.44 57.37 57.44 57.65
62.04 62.26 62.26 62.99 62.19 62.15 62.96 62.98 62.23 63.21 63.51 64.31 64.06 63.39 63.13 62.60 62.25 61.53 60.36 59.25 57.27 54.65 54.31 54.34 54.55 56.02 57.88 57.50 56.75 56.98 57.15 57.62
61.10 60.62 60.87 60.14 58.96 60.80 62.14 63.57 62.61 63.28 63.91 63.42 63.47 63.18 62.32 61.42 60.76 59.98 59.23 58.37 57.14 56.17 55.11 53.14 54.05 55.28 57.05 57.01 56.97 57.08 57.25 56.77
60.44 59.34 59.03 57.74 57.88 59.50 61.72 62.98 63.27 62.82 63.20 63.39 63.11 62.89 61.84 60.17 58.68 57.64 57.98 56.80 55.76 55.65 54.53 54.14 53.97 55.59 56.37 56.42 56.80 56.75 56.86 56.72
60.42 60.83 58.32 57.68 58.34 59.86 60.61 61.88 62.74 62.76 62.27 62.22 62.48 62.94 61.48 58.71 57.22 56.90 56.91 54.24 54.98 54.67 55.00 54.26 54.50 54.38 54.98 55.83 56.05 56.44 56.60 56.72
61.24 59.91 58.68 58.50 58.54 59.76 60.25 61.17 60.93 61.83 61.80 61.53 62.33 62.43 61.19 57.84 56.51 56.80 56.41 53.48 54.25 55.80 54.43 54.61 54.37 54.27 54.57 55.26 55.52 55.30 55.98 56.90
61.08 61.17 60.46 59.30 58.29 58.82 59.67 59.83 60.47 61.23 61.13 61.29 61.80 62.03 61.67 58.67 57.16 57.65 57.41 53.70 54.94 55.55 54.93 54.68 55.22 54.38 55.64 54.66 55.23 55.08 54.67 55.28
59.68 60.47 60.86 59.33 58.12 57.44 57.07 57.68 58.96 59.55 60.72 60.90 61.38 61.55 61.51 60.09 58.75 58.41 58.03 55.65 55.87 55.69 54.27 54.52 53.41 53.93 51.68 50.58 50.86 53.98 54.23 53.91
58.13 59.58 60.32 59.57 58.76 58.40 58.64 58.53 58.90 59.13 59.47 60.08 60.34 60.60 60.57 60.60 58.88 59.13 58.05 58.05 55.83 55.23 53.65 52.38 52.03 52.67 52.07 49.43 46.83 49.06 51.89 52.66
57.48 58.51 59.93 59.84 59.56 59.05 58.10 58.39 58.35 57.90 57.91 57.65 58.88 59.11 59.27 60.38 59.32 58.74 59.02 57.72 55.63 54.44 54.42 54.16 52.22 52.49 53.06 51.34 48.08 46.08 48.05 50.15
56.93 58.18 59.08 59.61 59.63 58.39 57.05 56.69 54.95 56.32 57.41 57.88 58.33 58.51 57.94 58.11 58.86 57.99 58.14 57.15 55.96 55.52 55.15 54.42 53.20 52.30 52.12 55.12 54.06 52.71 47.37 46.62
56.87 57.97 57.90 58.39 59.42 58.83 57.65 57.00 57.54 58.13 56.65 54.38 56.70 56.93 57.59 57.35 57.80 57.23 57.00 58.75 56.45 56.22 55.10 54.74 54.26 53.07 51.79 53.63 52.98 53.71 52.05 49.92
57.24 56.92 56.88 57.67 59.00 58.95 58.16 57.35 57.21 57.16 56.76 55.56 55.81 56.59 56.51 56.24 56.91 57.13 56.80 57.82 57.96 56.28 56.62 55.77 55.81 53.81 53.09 53.99 53.32 52.51 51.90 50.72
56.97 57.05 56.29 57.48 58.69 58.67 58.33 57.78 57.38 57.04 56.96 56.03 54.77 55.13 55.16 56.02 55.86 56.99 56.70 57.27 57.38 57.10 56.90 56.49 56.21 55.23 54.39 54.17 54.75 54.44 54.31 53.06
56.72 56.61 56.55 57.35 58.34 58.42 58.49 58.20 57.69 57.69 57.65 57.26 55.83 55.45 56.42 56.90 56.42 57.14 57.79 57.68 57.74 57.63 57.39 57.04 56.88 56.24 55.04 54.53 54.90 55.07 55.25 54.34

GFSFLT2_sfc_wetblb_087.txt.gz
Wetbulb
66.99 67.42 68.07 68.37 68.14 67.89 66.66 67.44 66.73 66.24 66.04 66.58 67.25 66.64 66.63 66.78 67.83 68.11 68.61 68.37 68.15 68.35 67.76 66.21 66.07 65.29 64.35 63.43 62.46 62.30 58.56 59.36
64.16 65.02 66.48 66.28 65.37 66.44 66.19 65.65 66.05 66.46 66.65 65.96 66.58 66.52 65.98 66.68 66.75 67.18 67.60 68.43 67.83 67.40 66.35 64.92 65.30 64.41 63.49 62.49 62.12 61.69 58.00 58.47
62.94 65.91 65.67 65.38 63.50 64.46 65.90 66.30 65.50 65.70 65.97 66.44 65.12 64.11 65.97 65.37 65.70 65.93 66.91 67.00 67.05 66.05 64.89 63.86 64.35 63.76 63.01 62.49 61.15 57.65 57.54 57.31
63.28 63.26 63.76 64.38 64.34 62.53 61.69 63.17 62.86 62.54 63.52 64.14 65.07 64.16 65.23 65.06 65.23 65.51 66.00 66.10 65.84 65.10 63.44 63.56 62.80 60.88 60.75 60.64 57.56 57.71 57.74 57.77
62.22 63.33 64.19 63.20 63.31 62.35 62.16 62.78 62.74 61.89 61.45 61.56 62.32 62.61 64.61 64.98 65.09 65.41 64.51 64.75 63.12 62.09 59.55 58.05 59.52 59.14 57.16 56.61 57.71 57.92 58.52 58.65
61.65 62.45 63.86 64.30 63.30 62.08 61.83 61.57 61.55 60.72 62.31 61.80 61.94 63.10 63.34 64.14 64.45 63.95 62.87 61.93 59.95 58.58 55.10 55.06 56.80 57.02 56.74 56.51 57.26 57.90 57.84 58.13
61.25 61.64 61.45 62.12 63.37 63.06 62.38 61.49 60.77 60.88 63.20 62.47 62.69 63.14 63.15 64.09 63.23 62.49 60.77 59.90 58.69 56.83 54.16 54.74 55.75 56.57 56.77 56.55 56.80 57.40 56.62 57.80
61.18 61.37 61.42 61.17 61.82 62.58 62.70 62.08 61.31 61.73 63.23 63.37 63.63 63.99 63.63 63.04 61.84 60.66 60.17 59.62 57.12 55.76 53.82 54.01 55.37 56.66 55.74 56.38 56.78 57.02 56.29 56.11
61.27 59.87 58.92 59.18 59.10 60.95 62.44 62.57 62.31 62.60 62.80 63.35 63.56 63.63 62.75 62.19 60.99 59.58 58.98 58.80 57.41 56.45 53.14 53.50 54.99 56.80 55.39 55.84 56.60 56.59 56.04 56.23
60.03 60.40 57.20 56.52 58.42 59.55 61.48 62.80 62.49 62.68 62.98 63.24 63.02 62.82 62.16 60.78 59.36 58.40 57.73 56.65 56.13 55.71 54.28 53.35 54.92 55.59 54.92 55.66 55.88 56.21 55.75 55.62
59.91 57.94 56.37 56.88 57.81 58.59 59.94 61.56 62.24 62.46 62.30 62.72 62.80 62.38 60.94 59.23 58.25 57.22 55.60 54.93 55.10 55.19 53.82 54.14 53.80 54.13 54.98 54.51 54.63 55.00 55.18 56.24
60.38 58.00 56.62 57.27 58.61 59.31 59.73 60.40 60.72 62.04 61.82 61.93 62.58 61.90 59.83 57.67 57.08 56.40 55.67 53.61 54.38 53.75 53.71 53.32 53.64 54.45 55.63 54.60 53.88 54.39 54.99 54.57
59.65 58.68 57.54 56.96 56.96 57.32 57.98 58.14 59.53 60.15 61.19 61.72 62.05 61.61 59.08 57.18 57.37 56.07 54.92 53.60 54.61 54.78 53.65 52.93 51.78 52.95 51.59 50.70 51.46 53.56 53.62 53.79
59.32 59.11 57.69 57.02 57.45 57.36 57.55 58.29 59.00 59.57 60.20 60.99 61.99 61.64 59.49 57.56 57.78 55.79 55.28 53.41 55.10 53.92 53.58 52.33 51.85 52.61 51.78 49.37 47.98 50.17 51.75 53.32
58.41 59.04 58.68 57.65 57.47 58.16 58.41 57.22 58.36 57.98 58.14 59.31 59.61 61.12 60.50 58.68 58.30 57.02 56.63 54.23 55.03 54.92 53.73 52.82 51.55 51.97 53.67 50.88 46.87 46.82 48.74 50.84
58.18 58.57 58.47 58.71 58.19 57.21 57.35 56.17 55.86 57.29 57.71 58.33 58.74 59.02 60.11 59.70 58.38 58.49 57.50 57.28 55.39 54.96 54.88 54.55 53.45 52.36 51.14 53.49 52.64 51.25 47.98 46.39
57.11 57.88 58.05 58.30 58.31 57.98 57.40 56.87 56.69 56.88 57.67 57.39 58.11 57.76 58.23 59.29 59.07 58.22 58.17 57.55 56.56 55.20 53.95 53.58 53.51 52.91 50.90 52.70 52.74 52.62 51.43 49.04
56.36 56.88 58.06 58.00 57.96 58.46 57.53 57.14 56.25 56.20 56.16 55.90 56.52 57.45 57.21 57.24 58.40 57.85 57.60 57.64 56.18 55.89 55.02 53.96 53.18 53.65 53.62 53.36 52.82 52.28 51.78 50.83
56.87 56.59 56.14 57.63 58.61 58.35 57.71 57.43 57.15 56.15 55.69 55.34 55.70 55.98 55.90 55.74 56.11 56.99 56.95 57.85 57.70 56.63 56.14 55.24 54.73 53.69 53.49 53.03 54.21 54.33 54.28 53.25
56.18 55.93 55.61 56.08 56.98 57.82 58.08 58.06 57.77 56.57 56.41 55.72 54.63 55.36 56.01 55.48 55.08 56.34 56.62 56.76 57.82 57.17 56.30 56.39 56.26 55.32 53.96 53.71 53.95 54.81 54.71 54.38

GFSFLT2_sfc_wetblb_090.txt.gz
Wetbulb
68.01 68.90 69.91 69.04 68.24 68.17 67.16 67.02 66.73 67.56 67.16 66.80 67.15 67.02 67.17 67.74 68.01 68.41 68.74 68.88 68.90 68.52 67.77 67.10 66.72 65.95 64.91 63.92 63.06 62.73 59.40 60.94
66.55 67.13 68.33 68.58 68.12 67.20 67.11 66.76 66.15 65.95 66.46 67.16 65.81 65.70 65.48 67.46 67.34 66.99 67.37 68.24 68.19 67.78 66.43 66.46 65.70 64.71 63.83 63.08 62.51 61.17 57.95 58.80
64.95 66.19 65.92 66.00 66.16 67.18 67.00 66.78 66.06 66.02 66.69 66.53 65.19 64.44 65.22 65.31 66.05 66.47 67.23 66.74 66.95 66.25 65.83 65.53 64.56 63.76 63.26 62.49 60.35 57.04 57.61 57.61
63.75 65.05 64.94 63.70 64.91 63.23 62.97 64.30 63.64 63.39 63.69 63.50 65.45 63.54 63.01 64.30 64.75 65.29 66.06 65.98 66.08 64.70 64.80 64.42 62.97 61.07 61.17 60.24 57.62 57.47 57.68 57.96
63.72 63.33 63.77 62.43 63.35 61.95 60.85 61.90 62.41 61.61 62.00 64.07 64.21 62.51 64.15 63.26 63.37 64.56 65.43 65.58 63.36 61.98 63.08 61.45 60.40 59.95 57.08 56.91 57.23 57.55 57.91 58.39
62.87 64.16 63.70 63.28 63.38 62.68 62.21 62.22 61.89 61.44 61.71 62.08 63.66 62.28 63.68 63.23 63.37 64.03 64.60 63.51 60.70 58.11 58.25 59.20 58.96 57.71 56.65 56.67 56.88 57.04 57.13 58.04
60.93 63.45 63.39 63.56 62.59 62.20 61.76 61.21 61.06 60.90 61.61 61.31 62.29 63.08 62.64 63.44 63.67 63.93 63.04 62.19 59.41 55.76 55.81 57.73 56.25 56.44 56.78 56.54 56.51 56.83 57.06 58.47
60.27 62.02 62.12 62.67 63.06 62.17 61.98 61.90 61.15 60.54 61.66 62.18 61.73 62.50 62.63 62.75 63.30 62.62 61.06 61.02 59.27 55.67 55.90 56.66 56.22 56.26 55.53 56.25 56.42 56.48 56.61 57.59
61.81 62.10 60.06 61.28 61.74 61.84 62.41 62.13 61.47 61.07 61.81 62.60 62.38 62.26 62.41 62.43 62.57 61.34 60.42 59.02 55.96 53.84 54.02 54.99 55.45 56.05 55.08 55.57 56.04 56.21 56.29 57.16
61.96 62.11 59.60 57.81 57.45 61.24 62.50 62.42 61.74 61.73 62.28 63.04 62.96 63.27 62.94 62.45 61.06 60.11 59.83 58.27 56.56 54.01 53.92 54.57 55.22 55.11 54.72 55.41 55.37 55.90 56.02 56.74
60.61 60.24 58.79 59.23 59.56 59.48 61.27 62.29 61.96 62.28 62.62 62.95 62.67 62.34 62.16 61.20 59.99 58.33 58.00 57.91 56.77 54.52 53.66 55.43 54.62 54.71 54.96 54.95 54.53 55.23 55.66 56.58
60.71 58.69 57.59 57.50 57.58 58.03 59.49 60.79 61.33 62.32 62.21 62.57 62.39 61.29 60.45 59.26 58.30 56.44 56.83 56.14 55.71 54.47 53.95 54.55 55.01 55.06 55.33 53.39 53.32 54.39 55.33 55.31
59.88 57.81 56.98 57.44 57.40 56.68 57.35 58.11 59.74 60.62 61.47 62.07 62.39 60.95 59.17 57.94 57.23 56.13 55.16 55.00 54.83 53.87 52.95 53.42 52.77 54.53 52.54 50.80 51.58 53.05 54.02 54.30
59.82 58.41 56.90 56.74 57.20 57.32 55.96 58.80 59.32 59.89 60.80 61.32 62.14 60.38 58.93 57.81 56.55 55.70 54.24 54.13 54.44 53.53 53.05 52.25 52.15 54.42 51.60 50.49 48.51 50.72 52.65 53.47
59.20 58.85 57.82 56.93 57.27 57.33 57.32 58.23 58.59 58.19 59.10 60.16 60.93 59.87 58.99 58.59 57.29 56.02 53.75 53.86 54.29 53.98 52.46 51.90 52.46 52.78 54.55 51.39 47.35 48.23 50.02 51.91
59.58 58.99 57.59 57.00 57.41 57.09 56.49 56.15 55.44 57.34 58.15 59.07 59.72 59.64 58.29 58.50 56.87 56.08 54.86 53.65 54.67 54.91 54.41 52.92 53.23 51.58 52.16 53.01 52.61 51.21 49.73 47.56
58.80 58.70 57.90 57.67 57.05 56.99 56.07 55.31 55.10 57.64 57.87 57.93 58.09 58.69 58.50 58.60 57.39 55.84 55.69 54.94 55.30 55.25 54.24 53.67 53.74 53.17 52.23 52.59 52.59 52.46 51.62 48.64
57.93 57.79 57.43 57.58 57.11 56.92 56.27 55.94 54.85 56.40 56.94 56.86 57.47 57.33 58.37 57.97 57.99 56.94 55.76 55.61 55.56 55.10 55.05 54.01 53.89 53.97 53.78 53.23 52.53 51.43 50.72 50.65
56.91 56.81 56.28 57.26 56.94 56.69 56.27 56.40 56.40 55.63 56.42 56.60 56.68 56.78 56.70 57.91 57.78 57.07 56.46 54.21 53.85 56.02 55.11 54.46 54.14 53.45 53.42 52.95 53.50 53.53 53.82 52.80
55.72 56.02 56.06 56.91 56.53 56.49 56.76 55.98 56.81 56.96 56.67 56.40 56.13 56.72 57.11 56.93 57.93 57.52 56.91 57.12 56.41 56.36 55.60 55.03 54.70 53.81 53.09 53.17 52.98 54.43 54.83 54.27

GFSFLT2_sfc_wetblb_093.txt.gz
Wetbulb
69.22 70.47 70.53 69.32 68.57 68.51 68.06 68.71 68.47 68.86 68.45 68.84 68.51 67.99 67.81 68.14 68.10 68.56 68.77 68.47 69.06 69.01 68.31 67.69 67.33 66.55 65.47 64.54 63.88 64.81 66.78 66.26
68.22 69.83 70.79 71.43 70.62 67.41 67.16 67.18 67.58 67.39 67.86 67.21 66.09 65.84 66.25 66.82 66.47 67.90 68.12 67.85 68.58 68.50 67.42 66.98 66.27 65.34 64.34 63.48 63.02 63.22 65.87 65.68
67.85 68.44 69.32 70.35 69.01 67.75 67.52 67.11 66.67 66.65 67.07 66.24 65.42 66.65 66.73 66.54 65.79 66.08 67.42 67.10 67.45 67.16 66.58 65.78 64.76 64.25 63.70 62.87 62.68 64.40 64.64 64.40
66.36 67.23 68.81 69.23 68.36 68.64 67.03 66.63 66.60 66.51 67.38 67.42 67.58 67.29 67.25 66.49 66.84 65.95 66.46 65.82 66.33 66.20 65.63 64.41 64.42 65.15 64.09 62.27 63.63 63.55 63.37 63.95
64.86 65.74 66.71 68.83 67.27 67.73 66.29 66.17 65.82 65.78 65.78 66.49 67.19 67.65 67.23 66.83 67.45 68.18 67.27 65.68 64.99 65.26 65.16 65.58 65.19 64.40 63.53 63.19 63.09 63.51 63.44 63.32
65.07 65.11 64.68 66.40 66.93 66.57 65.49 64.97 64.75 64.63 65.74 67.19 66.89 65.89 65.89 66.19 65.71 67.08 66.90 65.19 62.99 63.96 65.02 64.55 64.17 63.34 62.84 62.79 62.74 61.85 61.84 62.97
64.58 64.94 64.65 64.61 64.14 64.33 64.37 64.89 64.41 65.01 64.15 65.12 66.23 64.01 64.70 66.06 64.72 66.22 64.33 62.63 61.20 62.87 63.14 63.62 63.07 62.08 62.06 62.24 62.08 62.37 62.60 62.54
65.83 63.98 65.56 64.34 63.29 63.35 63.71 63.81 63.15 62.95 63.56 63.39 65.75 64.71 65.45 65.71 64.72 64.40 64.66 61.73 60.07 61.39 63.10 62.67 62.15 62.14 61.61 61.82 61.83 62.05 62.34 62.48
64.32 64.34 64.93 63.84 63.34 63.30 63.41 63.49 63.63 62.45 62.66 64.21 64.61 64.98 64.96 65.07 63.33 63.02 63.75 62.42 59.25 60.35 61.84 61.97 61.57 61.57 60.94 61.21 61.40 61.57 61.63 61.90
64.41 63.88 62.67 63.28 63.28 63.37 62.96 63.14 63.30 63.88 63.45 63.74 63.35 62.90 63.61 62.84 62.75 61.95 61.72 58.66 57.46 58.95 60.54 60.23 60.29 60.47 60.12 60.61 60.61 60.93 61.43 61.88
64.11 63.55 61.77 62.50 62.10 62.79 63.10 62.87 62.85 63.67 64.25 63.43 63.81 63.19 62.75 62.61 62.24 61.54 60.36 58.53 57.49 59.24 59.55 60.20 59.33 59.65 59.70 59.74 59.84 60.21 61.07 61.15
64.43 62.69 61.80 62.21 62.10 60.95 62.06 63.31 63.50 63.56 63.43 63.43 63.11 62.51 62.42 62.39 61.37 60.34 60.35 58.78 58.30 59.22 58.96 59.35 59.86 59.58 58.26 58.35 59.56 60.05 60.58 60.70
63.56 60.29 60.27 59.94 58.30 58.28 59.50 60.16 61.27 62.41 62.96 63.81 62.68 61.09 59.86 58.89 59.23 59.64 60.66 59.27 58.59 59.20 58.28 58.86 58.26 59.69 57.53 56.96 57.93 58.82 58.98 59.52
62.08 59.65 59.62 59.51 59.60 59.98 59.88 59.61 60.61 61.31 62.00 62.31 61.85 60.11 59.45 59.45 59.04 58.53 59.06 57.90 56.64 57.36 59.02 57.98 58.13 58.50 57.17 56.22 52.48 54.92 56.46 58.02
60.91 59.77 59.44 59.23 59.59 59.66 60.14 60.31 59.74 60.22 60.98 61.88 61.44 60.15 59.38 58.68 59.10 58.43 58.39 57.93 56.62 57.57 58.23 57.97 55.48 57.66 58.40 57.25 53.19 52.62 53.91 56.67
61.15 59.86 59.30 59.20 59.10 58.33 59.13 57.72 57.07 59.11 60.01 60.76 60.57 60.05 59.45 58.30 57.26 55.81 56.09 57.30 56.35 56.62 57.43 58.53 58.30 56.10 57.13 56.67 58.14 57.38 54.19 51.71
60.85 60.17 59.14 58.47 57.96 58.37 58.27 57.65 58.38 59.96 59.82 59.43 59.97 60.12 59.46 58.67 57.43 55.81 54.85 55.67 55.93 55.24 56.03 57.80 58.27 58.16 56.71 55.60 55.67 55.59 55.97 54.47
60.59 59.84 58.80 58.78 57.89 58.35 58.72 56.92 56.95 59.05 58.83 58.14 58.49 58.01 58.35 57.86 57.22 56.65 55.35 54.93 55.56 56.01 56.01 55.81 57.30 58.76 57.97 57.48 55.60 54.76 54.14 54.43
59.81 59.13 57.76 57.96 57.66 57.85 57.83 57.04 58.35 59.47 58.80 58.25 58.04 57.14 57.40 57.40 57.06 56.48 55.27 54.66 54.57 54.67 55.82 55.19 56.44 56.67 57.79 57.69 57.91 57.67 57.41 56.71
58.75 58.31 57.50 57.49 57.55 57.53 57.83 57.82 59.57 59.88 59.38 58.68 58.98 57.72 57.84 58.17 57.50 56.22 55.29 54.85 54.10 54.14 56.58 55.38 56.15 56.72 56.13 56.24 57.28 58.17 58.29 58.08

GFSFLT2_sfc_wetblb_096.txt.gz
Wetbulb
72.56 72.06 71.09 69.20 69.14 69.30 69.33 69.71 69.64 69.67 70.00 70.12 70.06 69.25 68.99 69.10 68.76 68.73 68.61 67.21 67.51 68.50 68.54 67.70 67.45 66.98 66.18 65.46 65.39 66.46 67.64 67.24
71.10 71.22 71.43 72.83 72.68 67.99 68.28 68.80 68.67 68.56 68.80 68.10 67.43 68.05 68.05 68.17 67.60 67.97 68.29 68.55 68.50 68.42 67.63 67.23 66.51 65.91 65.18 64.52 64.51 65.29 67.69 67.60
70.49 70.50 72.22 73.24 72.50 70.85 68.48 68.37 68.16 67.91 67.99 66.51 66.31 70.34 69.47 67.85 67.25 67.21 68.11 68.02 67.47 66.95 67.00 66.36 65.22 64.94 64.52 64.05 64.02 67.30 67.02 66.23
69.90 70.29 72.00 72.33 71.67 72.06 71.18 71.19 69.93 70.54 70.52 69.48 70.07 70.22 69.80 68.08 66.86 65.27 66.16 66.09 66.34 65.93 66.11 64.99 65.39 66.99 66.50 64.14 66.33 67.26 67.16 66.64
68.54 69.33 70.65 71.77 70.61 70.78 69.74 69.43 69.22 68.69 69.50 69.50 69.66 69.10 68.48 67.92 68.40 68.75 68.43 66.90 68.10 65.13 64.77 66.62 67.07 67.28 65.47 66.16 66.42 66.82 65.82 65.35
68.16 68.51 68.52 71.03 71.09 68.94 68.88 68.10 67.67 67.08 67.21 68.54 68.51 68.51 68.24 68.10 67.91 68.68 68.30 68.75 67.34 66.57 64.63 66.37 66.83 66.77 66.39 66.33 66.07 65.88 65.57 65.24
68.12 67.68 67.95 70.05 70.03 68.94 68.28 67.98 67.26 67.80 66.77 67.40 67.38 67.62 67.10 67.00 68.01 68.34 67.90 67.31 66.44 66.04 64.29 65.80 66.09 66.03 65.96 65.45 65.35 64.85 64.68 64.25
69.55 66.54 67.43 68.58 68.99 68.27 67.07 67.02 68.24 67.67 66.88 66.57 67.15 67.37 66.90 66.87 67.39 67.33 66.91 65.72 65.47 64.31 65.04 65.62 65.92 65.55 65.24 65.25 64.48 64.48 64.00 63.46
69.48 67.75 67.70 66.93 67.87 67.32 67.80 66.22 67.54 67.15 65.78 65.62 65.92 67.70 67.51 66.39 66.92 66.22 64.94 63.38 64.85 63.57 64.67 64.91 65.07 64.75 64.79 64.75 64.48 63.32 63.23 63.33
68.79 68.24 66.37 66.58 67.34 65.65 65.34 65.62 65.70 66.08 65.91 65.48 65.71 66.43 66.61 65.87 64.87 65.98 64.46 62.78 63.25 61.50 63.28 63.19 63.79 63.85 63.58 63.73 63.17 62.71 62.96 63.08
68.05 68.64 66.30 66.25 66.68 66.04 65.31 66.32 64.47 65.35 65.76 65.44 66.14 65.73 65.39 64.40 64.18 64.01 61.97 61.02 61.42 61.63 63.23 63.57 62.70 62.58 63.01 63.24 62.66 62.42 63.16 62.77
68.16 68.23 66.79 65.52 65.52 65.02 64.67 65.18 64.38 65.53 66.11 65.44 65.79 65.56 64.10 63.00 63.05 62.10 60.54 59.05 59.01 60.24 62.10 63.33 63.69 62.76 61.56 61.38 61.95 62.81 62.96 61.48
66.94 67.54 65.73 64.12 63.44 62.63 62.42 62.49 63.22 64.21 66.33 65.00 65.20 63.81 62.46 62.62 62.29 61.30 60.24 58.78 58.38 59.72 62.26 62.29 61.82 62.85 60.02 59.17 59.69 60.79 61.05 60.92
66.03 67.17 63.93 63.99 64.99 65.27 63.76 62.91 63.37 63.96 64.51 64.13 64.67 63.19 60.52 61.35 61.45 60.57 59.99 58.68 58.49 59.51 61.99 61.01 60.74 61.83 58.70 58.57 54.33 56.46 58.76 60.59
65.05 66.67 62.96 63.75 66.26 65.32 63.33 63.46 62.56 62.42 63.15 62.45 60.80 60.24 59.99 59.68 60.50 60.38 59.93 59.32 58.74 61.17 62.32 61.33 59.25 60.99 61.90 59.16 54.43 53.73 57.23 59.87
65.32 65.72 61.52 63.06 65.20 64.52 63.67 61.78 60.02 61.45 60.89 63.16 61.84 61.44 59.82 59.72 59.10 59.64 59.30 60.28 60.89 60.41 61.97 62.51 61.38 59.12 61.08 61.56 61.52 60.07 56.01 54.38
65.17 63.22 61.29 62.01 62.99 65.27 63.58 63.12 62.41 61.92 62.18 62.34 61.72 60.96 60.97 58.99 59.25 60.31 60.32 60.52 60.35 62.17 62.27 62.73 62.10 61.08 59.21 59.02 59.32 59.45 60.23 57.13
64.33 60.93 60.50 61.53 62.88 63.95 63.74 62.96 61.49 60.87 60.78 61.34 59.41 59.55 58.99 58.73 57.62 57.45 58.76 59.92 59.58 59.12 58.78 58.67 59.02 60.60 60.21 60.70 59.30 57.35 57.18 56.33
62.58 59.83 59.59 60.70 61.52 62.47 62.15 62.66 61.40 61.74 60.69 60.41 59.41 58.71 58.49 57.37 57.05 56.43 56.69 57.39 57.19 56.95 56.98 56.79 57.63 57.98 59.06 59.96 60.49 59.64 59.16 57.91
61.08 60.15 60.46 60.25 60.87 61.02 60.69 62.60 59.11 61.99 61.08 61.00 60.22 59.54 58.84 58.25 57.88 56.94 56.62 56.93 56.99 56.87 56.49 56.59 57.63 58.43 60.26 61.15 60.30 61.05 60.92 59.51

GFSFLT2_sfc_wetblb_099.txt.gz
Wetbulb
73.58 72.54 71.20 69.48 69.54 69.92 70.00 70.22 70.31 70.13 70.38 70.38 70.51 70.17 69.65 70.09 69.66 69.47 69.25 68.83 68.56 67.57 66.91 67.16 67.14 66.60 66.06 66.05 65.80 66.40 68.17 67.77
73.21 73.37 72.66 72.56 72.22 68.59 69.15 69.41 69.45 69.25 69.12 68.91 68.80 68.30 68.80 68.78 68.51 68.88 68.13 67.98 67.72 66.83 67.00 67.63 67.18 66.04 65.29 64.71 65.23 65.25 66.97 67.07
72.87 72.79 72.76 73.10 72.58 71.41 69.14 69.12 68.71 68.41 68.82 67.72 67.75 71.38 70.15 68.63 67.69 67.98 68.17 67.23 67.21 67.14 67.15 66.30 65.61 65.48 64.68 64.02 65.04 67.60 66.31 65.22
71.46 72.20 72.62 72.82 71.32 72.49 72.18 71.58 71.25 71.08 70.98 70.85 72.08 71.00 70.76 69.30 67.69 66.84 67.49 67.25 66.96 66.73 65.81 65.54 65.27 66.14 67.24 64.47 67.22 67.03 65.72 65.06
71.21 70.96 72.67 72.18 71.76 72.14 71.80 71.55 70.71 71.20 71.21 71.03 70.86 69.94 71.38 70.62 68.80 67.30 67.60 65.94 67.45 66.46 66.22 65.18 64.92 65.63 67.54 67.09 67.51 65.31 65.37 65.51
70.97 71.08 71.47 72.17 71.60 70.84 70.95 70.91 70.81 70.41 70.72 70.92 70.61 69.78 69.80 68.92 68.51 69.08 69.59 69.71 66.99 67.22 66.48 64.77 64.10 65.36 66.90 67.23 65.34 66.17 64.64 65.39
71.16 70.60 70.25 71.38 71.00 70.36 69.87 69.36 69.21 69.19 68.53 69.80 70.16 69.07 68.60 69.09 68.74 69.33 68.88 68.39 68.16 67.51 65.02 64.98 63.84 64.62 66.67 65.36 65.27 65.48 65.10 65.16
71.42 69.93 69.39 70.98 70.78 70.97 69.07 69.68 69.79 69.61 68.04 67.68 68.66 69.05 68.64 68.28 68.16 67.78 68.35 67.90 67.83 65.22 64.51 63.85 63.71 64.18 65.66 65.18 64.80 64.45 64.24 64.60
70.83 70.13 68.78 70.20 70.42 70.37 68.93 68.81 69.10 68.54 68.65 69.05 67.25 68.05 67.83 67.81 68.12 67.94 67.42 67.96 66.67 66.18 64.39 63.64 63.14 64.96 64.29 64.54 64.21 64.00 63.10 63.06
70.15 70.49 67.97 68.35 69.77 69.74 69.00 68.51 68.52 68.40 68.57 69.01 67.91 68.20 67.05 65.41 65.93 66.36 67.74 66.92 66.60 64.46 64.44 62.54 62.45 64.18 63.14 63.37 63.38 62.58 62.57 63.06
68.37 70.85 69.39 67.51 68.16 69.00 68.54 68.87 67.84 67.62 68.14 67.55 68.23 67.60 67.25 67.33 66.46 66.54 67.21 65.23 65.00 63.60 63.98 62.69 61.78 62.72 62.25 62.50 62.58 61.19 61.94 61.79
67.65 69.74 69.98 68.46 67.46 67.37 66.31 66.23 65.85 67.08 67.60 66.06 66.33 67.23 66.67 66.64 66.34 64.69 64.73 63.69 63.58 62.21 62.35 62.10 62.62 61.94 61.09 61.21 61.42 62.41 62.54 62.24
66.66 68.77 69.65 67.40 65.59 64.47 64.60 64.67 64.47 65.87 65.53 67.14 66.98 67.02 66.21 65.56 63.57 62.03 61.73 60.77 60.75 61.44 62.40 60.53 60.52 62.92 60.25 59.84 60.60 62.36 61.44 61.20
64.34 67.27 68.79 67.59 65.25 65.61 66.10 65.44 65.14 66.65 66.17 66.22 66.39 66.48 66.02 64.14 62.59 61.52 60.44 59.93 59.65 60.18 60.57 60.23 61.97 62.23 59.67 58.02 54.85 56.66 59.49 60.32
62.06 65.42 67.79 67.46 66.76 66.95 66.79 66.28 64.82 64.68 64.35 65.38 65.64 65.66 65.31 63.29 61.92 61.33 59.81 59.92 59.05 59.70 60.28 59.89 59.45 61.75 61.13 58.32 54.12 53.00 56.18 58.69
63.64 64.84 66.97 66.84 67.55 66.92 66.29 64.08 62.47 63.45 64.55 64.33 63.99 63.60 61.20 60.98 60.81 61.35 60.05 59.64 59.15 59.74 61.32 60.60 61.09 59.28 61.03 61.11 60.68 59.78 55.07 54.15
64.58 65.17 66.73 65.79 67.20 67.48 66.16 65.31 64.55 64.30 63.72 62.90 61.86 61.35 61.19 60.22 60.03 60.21 59.63 59.52 59.52 59.97 60.67 61.75 62.33 60.71 60.37 59.69 60.82 60.72 60.28 57.65
64.60 65.19 66.64 65.08 65.24 67.05 66.10 65.46 64.73 62.83 62.08 61.69 62.27 60.75 59.68 59.24 60.33 59.63 59.70 59.55 59.94 60.40 62.55 62.29 61.50 61.19 61.27 61.62 59.93 58.51 57.50 57.31
63.61 65.13 63.93 63.62 63.23 65.91 66.37 66.10 65.06 62.96 62.65 61.30 60.50 59.24 58.92 58.65 59.16 58.90 59.68 59.92 59.82 60.29 60.57 60.55 61.89 61.64 61.29 60.48 60.26 59.48 60.20 59.59
63.51 64.65 61.95 61.27 61.96 65.39 66.16 66.14 64.37 63.31 62.72 61.94 61.52 59.60 59.44 58.72 58.36 57.57 57.64 58.65 59.54 58.95 58.17 57.93 58.27 58.23 58.21 58.60 58.63 59.38 60.29 60.33

GFSFLT2_sfc_wetblb_102.txt.gz
Wetbulb
70.99 70.48 70.10 69.84 69.72 69.89 69.95 70.25 70.28 70.20 70.46 70.42 70.77 70.36 70.00 69.47 69.67 69.57 69.29 68.93 68.98 68.85 68.13 67.44 66.80 66.91 66.17 65.73 64.46 65.76 66.14 66.37
71.83 71.51 70.65 70.55 70.51 68.73 69.35 69.64 69.51 69.38 69.89 69.57 69.02 69.03 69.28 69.20 68.80 69.11 69.24 69.07 68.88 68.11 67.67 67.20 66.80 66.44 66.00 64.67 64.22 64.39 65.08 65.34
72.99 72.25 71.55 71.66 71.32 70.18 69.06 69.36 69.06 68.64 69.22 68.83 67.74 69.54 69.03 68.44 68.60 68.24 68.32 68.02 67.35 66.86 66.80 66.51 66.15 65.53 65.68 65.41 64.26 64.51 64.63 64.82
71.59 72.08 71.71 72.36 70.76 70.33 70.50 70.32 69.63 69.54 70.03 69.39 70.11 69.37 68.70 68.33 67.57 67.38 67.28 67.08 66.69 66.49 66.51 65.64 65.68 65.04 64.75 65.15 64.21 64.41 63.79 64.17
70.36 70.85 71.91 72.02 70.37 71.49 70.65 70.51 70.28 69.89 70.12 69.94 69.79 68.48 68.46 67.20 66.43 67.09 66.06 66.37 65.90 65.97 65.13 64.50 64.36 64.35 64.26 64.01 64.86 63.71 64.01 64.05
70.32 70.26 71.10 71.24 71.50 71.17 70.58 69.64 69.67 68.76 69.84 70.09 69.01 68.15 67.90 67.01 66.31 65.80 66.28 65.90 65.52 64.68 64.47 64.38 63.67 64.26 64.22 64.16 63.92 63.53 63.38 63.61
69.45 69.74 70.09 70.86 71.66 69.47 69.89 69.45 69.29 68.46 69.32 69.45 68.70 67.89 67.16 66.94 66.39 66.61 65.95 65.95 65.22 64.69 64.40 64.03 63.49 63.40 64.41 64.04 64.16 63.38 63.19 62.86
69.75 69.38 69.80 70.43 70.25 69.89 69.32 68.56 68.73 68.79 67.76 68.40 69.09 67.98 67.12 66.51 65.75 65.73 66.31 65.53 65.57 65.03 64.53 63.41 62.54 63.40 63.47 63.63 63.55 63.04 63.24 61.92
69.51 69.50 68.89 69.41 70.01 70.06 68.71 68.05 68.65 68.17 67.58 67.96 68.16 67.95 67.77 66.33 65.64 65.48 66.00 65.48 65.53 64.69 63.46 63.68 62.91 63.47 63.00 63.17 62.89 61.66 61.47 61.85
70.06 69.89 68.29 68.10 69.54 69.49 68.11 67.45 67.89 67.96 67.87 67.38 67.09 67.02 66.95 66.26 65.82 65.68 65.32 65.59 65.06 63.85 62.24 61.77 61.80 62.05 62.05 62.31 60.86 60.59 59.67 60.85
69.29 69.21 67.86 67.16 68.43 69.35 68.62 67.55 66.88 67.05 67.40 67.56 67.33 66.99 66.62 66.13 65.11 65.01 64.66 64.41 64.17 63.83 62.36 61.26 60.90 61.19 61.51 61.79 60.42 58.36 59.19 61.21
69.66 69.40 68.05 67.30 67.34 68.41 67.68 67.59 66.30 66.61 66.43 66.24 66.05 66.74 66.40 66.08 64.88 64.50 64.17 64.10 63.50 63.33 61.99 62.12 61.26 60.88 62.21 61.04 58.46 58.10 57.87 58.10
67.65 68.90 68.67 66.99 65.66 65.18 64.73 64.37 64.60 64.49 65.73 66.42 65.57 65.44 65.46 65.08 64.21 63.79 64.01 63.16 62.48 63.07 61.77 61.04 60.11 61.05 58.99 57.97 58.68 59.50 58.42 58.29
63.42 68.09 69.01 67.65 65.90 65.71 64.68 64.26 64.43 64.40 64.69 65.47 65.44 65.33 65.26 64.47 63.61 62.90 63.13 62.39 61.96 62.01 61.00 59.83 59.75 60.52 57.41 55.47 53.12 55.21 57.06 58.07
60.72 64.49 68.39 68.15 66.67 65.49 64.91 64.87 64.49 63.51 64.47 64.31 64.59 64.46 64.42 64.05 63.30 62.13 61.56 61.33 60.50 60.64 60.68 59.58 58.05 59.52 59.50 55.73 52.46 50.97 54.03 57.00
62.01 61.36 64.81 68.07 66.18 64.50 64.09 63.16 62.22 62.87 63.71 63.94 64.06 64.03 63.94 63.62 62.82 62.32 60.95 60.87 60.24 60.30 60.86 60.13 59.08 57.46 58.84 58.70 56.89 56.60 52.48 51.48
62.07 61.89 62.16 67.29 65.72 65.42 64.61 64.00 63.68 63.55 63.31 62.99 62.53 62.69 62.12 61.05 60.79 61.10 60.28 60.34 60.22 59.99 60.18 60.04 60.08 58.41 57.81 57.13 56.61 56.76 55.82 53.21
62.05 63.01 62.43 66.83 66.14 65.63 65.27 64.55 63.50 62.59 62.09 61.42 61.21 60.09 60.88 59.75 60.00 60.12 60.81 59.92 59.68 59.79 60.02 59.67 59.77 59.41 58.84 58.14 57.14 55.04 54.83 54.02
60.58 61.72 61.96 65.64 65.45 65.39 65.91 64.96 64.74 62.95 61.25 60.87 59.88 58.97 58.55 58.70 59.56 59.08 59.11 59.56 59.67 60.31 60.56 60.12 59.89 59.32 59.12 58.33 58.38 57.48 57.07 56.34
58.27 56.65 62.26 64.39 64.19 64.66 65.78 65.34 64.86 62.93 61.27 61.98 60.87 59.14 58.65 58.74 59.22 59.38 59.23 59.59 59.85 59.80 60.35 59.97 59.95 59.67 59.07 58.34 57.70 57.35 57.46 56.39

GFSFLT2_sfc_wetblb_105.txt.gz
Wetbulb
67.74 68.46 69.58 69.55 69.48 69.42 69.41 70.12 70.20 70.03 70.44 70.54 70.68 70.16 69.64 69.54 69.64 69.65 68.44 67.99 67.40 68.07 66.97 67.16 67.83 67.56 66.93 65.74 64.88 65.63 65.60 65.71
67.23 67.00 67.63 67.63 67.72 68.59 68.90 69.03 69.27 69.24 69.58 69.20 68.89 69.03 68.98 69.12 69.00 69.23 68.07 67.74 67.55 68.53 67.87 67.06 66.58 66.24 65.91 65.06 64.49 64.59 65.66 65.25
67.76 67.23 67.45 67.61 67.34 68.50 68.99 69.27 68.87 68.57 68.90 68.59 67.25 68.12 68.25 68.17 68.10 68.32 68.13 67.97 68.16 67.85 66.95 66.33 65.84 65.59 65.27 65.06 64.75 63.94 64.64 64.44
68.67 67.67 67.74 68.16 69.29 67.18 66.68 67.74 66.46 66.73 67.36 67.11 67.61 67.11 67.36 67.93 67.65 67.34 67.69 67.42 67.22 66.82 66.31 65.60 65.11 63.75 64.37 64.87 63.61 63.82 63.63 63.98
68.31 68.27 68.47 68.53 68.56 67.11 67.81 67.13 66.18 66.07 66.75 67.11 66.91 66.66 66.08 66.28 66.35 66.62 66.30 66.06 64.88 65.28 64.53 63.54 63.35 63.37 63.40 63.34 64.15 63.66 63.39 63.70
68.03 68.13 67.76 67.85 69.19 68.25 67.90 67.52 66.72 66.03 66.26 66.93 65.86 65.74 65.24 64.77 65.64 65.38 64.72 64.60 63.56 63.70 63.15 62.54 62.35 62.94 62.75 63.21 63.65 63.46 62.80 63.09
67.89 68.03 67.89 68.09 68.72 68.54 67.65 66.77 66.84 66.31 66.78 66.89 66.40 65.41 65.16 64.78 64.41 65.43 64.66 64.75 63.74 63.20 62.76 62.62 61.87 62.34 62.92 64.12 63.45 63.31 62.95 62.99
67.79 67.76 68.06 67.98 67.29 67.11 66.53 67.24 66.35 66.04 66.10 66.08 65.84 65.34 65.36 64.97 64.48 64.83 65.19 64.45 63.80 63.57 63.05 62.48 61.66 61.89 62.46 63.86 63.56 62.90 62.60 62.30
67.41 67.21 67.62 67.86 67.11 66.31 65.66 66.06 66.00 65.22 64.92 67.14 65.77 65.17 64.93 64.54 64.27 63.72 64.02 63.87 63.32 63.30 62.99 62.50 61.28 62.02 62.40 63.21 63.19 63.09 61.96 62.28
67.44 68.05 67.41 67.06 66.78 66.62 65.82 65.02 65.13 65.35 64.98 65.27 65.61 65.27 64.61 64.29 63.65 63.49 64.00 63.21 63.76 62.74 63.40 61.87 60.79 61.43 61.79 62.04 62.65 62.12 61.53 61.43
66.89 67.39 66.68 66.62 66.24 66.67 65.24 64.84 64.55 66.29 65.88 65.50 65.43 65.27 64.87 64.01 63.81 64.05 63.90 62.89 63.12 62.49 61.51 61.90 60.07 60.61 61.47 61.66 61.94 60.36 60.25 60.88
67.32 67.02 66.14 66.21 66.70 65.56 65.15 64.62 63.43 63.71 65.13 65.64 65.39 65.46 64.87 63.97 62.71 62.47 61.93 62.51 62.42 62.51 60.96 60.92 60.60 60.23 61.91 61.39 61.22 59.45 59.72 59.00
67.14 66.06 65.44 65.11 65.26 63.91 64.42 63.35 62.80 61.80 63.05 64.75 65.44 64.99 64.85 64.20 63.35 61.89 61.68 61.79 61.90 61.96 61.08 59.77 59.05 60.18 59.66 59.27 58.26 58.04 56.72 58.19
66.69 66.09 65.19 64.84 64.94 65.17 63.62 64.52 63.41 64.07 62.35 62.75 63.57 64.40 64.04 63.46 62.50 61.98 61.78 62.09 61.58 61.62 61.10 60.13 59.70 60.48 58.23 56.64 53.60 55.25 56.35 56.53
65.34 66.34 65.28 65.13 64.62 64.42 62.64 62.65 63.12 62.61 62.85 62.71 62.06 62.46 63.01 62.57 61.75 61.87 62.09 62.81 62.04 61.95 61.50 60.26 58.38 59.90 59.26 55.49 51.91 51.02 52.90 55.07
56.74 65.45 65.86 65.09 64.44 63.72 62.36 61.50 60.90 62.12 62.42 62.34 61.76 62.43 61.81 62.40 61.52 61.11 62.09 62.20 61.67 61.74 61.83 60.62 59.74 58.08 58.98 59.42 56.50 55.92 51.89 50.34
56.49 57.58 61.86 65.50 64.26 63.89 62.56 61.54 61.82 61.32 62.07 62.62 61.25 60.69 61.46 61.82 62.54 61.47 61.22 61.11 61.26 61.24 61.12 60.44 60.05 59.09 58.45 57.39 55.67 55.59 55.00 52.79
53.11 54.37 56.55 62.70 64.02 63.37 62.73 61.73 61.50 60.59 60.77 59.92 59.47 59.94 59.72 60.42 60.28 60.74 61.10 60.72 60.50 60.53 60.90 60.43 59.63 59.71 59.13 57.79 56.35 54.53 53.75 52.80
49.59 49.95 52.00 54.33 63.52 63.21 62.97 62.53 61.95 61.23 60.61 60.04 59.51 59.19 58.98 58.86 59.07 58.74 58.85 60.10 60.12 60.34 60.26 60.12 59.88 58.97 58.70 57.95 57.92 57.42 57.04 55.46
45.21 46.09 48.05 51.23 61.41 63.17 63.21 63.12 62.41 61.94 61.05 60.27 59.56 58.71 58.48 58.59 58.40 58.09 59.22 59.76 59.78 59.97 60.02 59.74 59.89 59.26 58.69 58.46 58.39 57.92 57.57 56.09

GFSFLT2_sfc_wetblb_108.txt.gz
Wetbulb
67.64 68.33 69.57 69.30 69.03 69.16 69.43 70.25 70.65 70.78 70.54 70.47 70.72 70.18 69.72 69.95 68.58 67.43 67.87 69.04 68.78 67.59 67.18 67.38 68.10 68.09 67.14 66.02 65.42 66.27 65.23 65.43
66.67 66.98 67.48 67.50 68.27 68.11 68.69 68.85 69.00 69.30 69.88 69.45 69.15 68.90 69.17 69.29 68.32 68.11 68.40 68.60 67.91 67.55 66.52 66.93 66.98 66.67 66.22 65.20 64.53 65.78 64.71 64.39
65.76 66.26 66.23 66.08 66.41 68.17 68.67 69.18 68.62 68.51 68.98 68.78 67.55 68.53 68.07 68.60 67.92 67.23 67.45 67.20 67.64 67.48 66.89 66.36 65.94 65.78 65.35 64.97 64.73 65.30 65.11 64.24
65.47 65.68 65.97 65.90 67.79 66.64 66.23 67.52 66.28 66.33 66.98 67.32 67.66 67.16 66.94 68.00 67.50 66.83 66.96 66.92 66.83 67.28 66.47 65.58 65.07 63.33 64.19 65.13 64.48 64.55 64.46 64.11
66.38 66.00 66.38 66.64 66.81 66.09 65.98 65.43 64.44 65.04 65.61 66.42 66.33 66.60 66.73 66.85 67.37 66.89 66.26 66.81 66.08 65.65 64.39 63.23 62.27 62.09 63.43 62.98 64.02 63.78 64.07 64.40
67.28 66.90 67.05 67.41 66.93 65.82 66.12 65.64 64.88 64.60 65.31 65.97 65.79 65.35 64.92 65.28 66.05 66.13 65.58 64.24 62.87 62.87 61.89 61.56 61.49 61.88 62.63 63.03 63.74 63.46 63.78 64.23
67.63 67.52 67.23 67.48 67.00 66.44 66.48 66.03 65.58 65.31 65.60 66.06 65.43 64.95 64.25 64.59 64.79 64.99 64.91 63.77 62.90 61.89 61.17 61.14 60.84 61.33 61.47 62.45 62.69 63.50 63.29 64.00
67.66 67.62 67.82 67.76 67.79 66.76 66.64 66.57 66.04 65.77 66.10 66.11 64.90 65.21 64.15 64.06 64.20 64.26 64.12 64.13 63.30 62.43 61.88 61.33 60.62 61.00 60.69 62.51 63.01 63.44 63.15 63.41
67.23 67.36 67.64 67.20 67.78 67.25 66.62 66.81 65.93 65.27 66.11 65.50 65.06 64.88 64.47 63.74 63.59 63.44 63.41 64.18 63.37 62.08 61.17 61.45 60.23 61.30 60.53 61.75 62.95 62.93 62.69 62.68
67.54 67.93 67.01 67.11 67.10 67.01 66.27 66.69 65.85 65.12 65.81 66.38 65.07 64.61 64.75 63.89 63.37 63.20 63.51 62.88 62.89 62.18 62.24 62.01 61.38 61.14 60.30 60.60 61.43 62.24 62.09 62.36
66.71 67.08 66.11 67.26 66.86 66.51 65.60 65.55 65.36 64.96 64.46 64.75 66.03 64.27 64.28 64.16 63.53 63.13 62.99 62.71 62.51 62.16 62.52 62.53 61.30 60.80 60.44 60.32 61.02 61.24 61.35 62.53
66.49 66.71 66.18 66.92 66.04 65.05 64.11 64.07 64.05 65.11 64.58 64.49 64.87 65.07 63.99 63.51 63.02 62.83 62.60 61.91 62.43 62.72 62.57 62.00 60.70 60.36 60.78 60.79 60.10 59.91 60.71 60.97
65.59 65.67 65.69 65.98 65.27 64.25 63.32 63.06 62.89 63.95 64.66 64.79 64.44 65.19 64.31 63.49 62.80 62.15 61.73 61.63 62.21 61.93 61.49 60.46 59.51 60.37 59.77 59.30 59.10 58.37 58.45 59.31
64.93 65.54 65.24 65.66 66.44 66.02 64.83 64.43 63.24 63.29 63.89 64.58 64.63 64.27 64.36 63.87 62.94 62.01 61.21 60.50 60.74 61.42 60.96 59.81 59.62 60.62 58.23 58.16 54.93 55.54 56.60 58.32
63.68 64.03 64.64 65.48 65.83 64.96 62.27 61.77 61.63 61.30 61.68 62.28 63.38 64.07 63.71 63.64 62.94 62.44 61.33 61.43 61.13 61.51 61.44 59.93 58.42 59.81 59.22 56.66 52.36 51.45 54.09 55.57
54.06 63.29 64.66 64.45 63.04 64.20 62.67 62.48 61.28 62.50 62.73 62.01 62.45 63.31 62.94 62.67 61.76 61.67 61.33 62.30 62.34 61.94 62.24 60.95 59.18 57.62 58.63 59.04 56.00 55.44 52.41 51.60
50.74 51.41 56.44 59.20 63.32 63.55 62.52 62.61 62.45 60.38 61.05 60.96 61.91 62.07 61.99 62.80 61.35 60.89 61.01 62.03 62.24 61.56 61.26 61.07 60.15 59.29 58.51 57.85 55.93 55.17 54.89 53.70
47.03 47.17 49.48 51.81 56.14 63.49 63.02 61.86 60.58 60.32 60.25 60.15 61.15 61.61 61.70 62.24 61.67 61.55 61.65 61.28 60.77 60.93 61.33 61.04 60.45 60.04 59.70 58.37 56.30 54.38 53.24 53.42
44.54 44.39 45.28 47.83 48.93 55.73 62.93 61.94 60.99 60.63 60.37 60.48 60.15 60.06 60.75 61.22 61.67 60.98 60.81 60.97 60.88 60.80 60.68 60.91 60.61 59.78 59.51 58.17 57.68 56.59 56.27 55.17
41.29 42.55 43.99 46.05 47.29 50.45 61.58 62.94 61.83 61.29 61.00 60.86 60.15 59.91 60.05 59.85 60.00 59.20 59.02 59.29 60.09 60.53 60.31 60.43 60.45 59.60 59.32 58.39 57.53 57.18 57.20 56.25

GFSFLT2_sfc_wetblb_114.txt.gz
Wetbulb
68.96 69.50 69.91 69.91 69.64 69.71 69.60 69.95 70.28 70.50 70.61 70.91 71.18 70.53 69.89 70.20 70.12 70.32 70.27 70.33 70.29 69.81 69.30 68.88 68.75 68.26 67.63 66.60 66.22 66.51 66.11 66.60
67.49 68.40 68.69 68.44 69.39 68.87 68.94 69.10 69.21 69.54 69.76 69.63 69.30 69.21 69.24 69.26 69.09 69.46 69.55 69.29 69.38 69.09 68.38 67.99 68.19 67.25 66.45 66.00 65.50 66.07 65.61 66.02
66.49 66.92 67.95 67.20 67.09 69.05 69.48 69.66 69.30 68.71 69.36 68.78 67.52 68.49 68.31 68.06 67.65 68.21 68.51 68.15 67.82 67.55 67.38 67.12 66.72 66.47 65.96 65.71 65.79 65.63 65.29 65.07
65.51 66.45 66.81 66.46 67.50 68.17 68.69 69.79 69.88 68.94 68.60 68.06 67.45 67.61 67.14 66.47 65.85 66.83 67.38 67.16 66.42 66.12 65.68 65.82 64.85 63.85 64.13 65.54 64.69 64.68 64.97 64.58
64.96 65.71 66.20 66.56 66.94 67.16 67.50 68.15 67.99 67.95 67.00 67.09 66.09 67.25 67.11 65.44 64.51 65.17 64.72 66.07 64.27 64.69 63.87 62.58 61.89 62.65 62.70 62.96 64.21 64.50 64.86 64.88
64.01 64.99 65.28 65.79 66.40 66.29 66.56 66.58 65.55 66.07 66.34 66.25 66.48 66.46 66.44 66.53 65.08 63.90 63.65 63.22 62.60 62.72 61.64 61.03 60.72 61.75 62.27 62.23 63.07 63.36 63.99 64.99
63.29 64.05 64.57 65.23 65.24 65.45 65.15 65.75 64.92 64.51 65.14 66.23 66.37 66.24 65.80 66.38 66.02 64.53 64.93 64.73 63.51 61.58 60.76 60.45 60.06 60.68 61.23 61.52 62.26 62.79 63.63 64.29
63.27 63.56 64.01 64.98 64.57 64.67 64.64 64.52 63.20 63.59 65.26 66.40 65.36 65.67 65.65 65.62 65.42 65.24 64.97 64.18 61.38 61.28 60.73 59.81 59.51 59.84 60.05 60.91 61.54 62.16 62.97 63.48
63.28 63.44 63.77 64.23 63.92 63.91 64.20 64.23 63.36 63.50 64.42 65.45 64.79 64.45 64.89 65.14 64.86 64.49 64.42 63.58 60.89 60.39 59.67 59.29 59.75 59.76 59.51 60.44 61.17 61.62 62.09 63.19
65.11 64.69 64.07 64.31 64.69 64.19 64.32 64.23 63.98 63.62 63.93 65.23 64.27 64.14 63.90 64.39 64.17 63.90 64.19 62.92 61.10 60.21 60.29 59.87 59.47 60.37 59.46 59.16 60.43 61.13 61.57 62.81
65.71 65.53 64.56 64.56 65.21 65.01 64.42 64.37 64.42 63.68 64.08 64.75 64.37 63.58 63.36 63.49 64.05 63.66 63.18 62.77 62.21 61.50 60.74 59.30 58.82 59.91 60.08 59.35 59.45 59.71 61.62 62.99
65.94 66.20 65.60 65.39 66.13 65.93 65.48 65.19 64.83 64.68 64.16 64.11 63.78 63.96 63.09 62.90 62.32 62.03 62.82 62.34 62.14 61.57 61.20 61.23 59.10 60.20 60.45 60.32 61.04 60.37 61.30 61.20
65.52 65.37 65.54 65.96 65.75 64.68 63.82 63.63 63.95 64.36 64.57 64.33 63.83 63.47 63.13 62.75 61.99 61.21 62.37 62.03 61.65 61.08 60.64 60.24 60.12 60.65 59.49 59.21 60.09 60.05 60.09 61.44
58.34 64.85 64.93 65.80 65.95 65.57 64.98 65.21 65.07 64.82 64.93 64.41 63.97 63.27 62.93 63.05 62.80 61.95 62.11 62.06 61.53 61.17 61.17 60.54 60.29 60.69 57.88 57.56 54.52 55.87 58.61 60.45
51.06 61.89 64.53 65.39 65.76 65.58 62.42 63.38 62.86 63.33 63.66 63.55 63.65 63.39 62.98 62.88 63.01 62.59 61.84 62.25 61.36 61.70 61.53 60.77 58.86 59.65 59.68 57.63 53.78 52.87 54.59 57.34
45.94 53.16 61.74 64.97 65.98 65.07 63.82 63.05 62.41 63.63 64.27 64.60 63.99 63.10 64.04 63.58 63.14 62.63 62.29 62.29 61.97 62.02 62.06 61.23 60.40 58.08 59.44 59.91 57.92 56.38 53.87 51.24
44.22 48.98 49.73 51.01 54.91 65.22 64.26 63.50 62.99 61.32 62.00 63.51 63.90 63.85 63.81 63.73 63.62 63.08 62.69 62.45 62.63 62.30 61.74 61.18 61.06 60.21 59.03 58.56 58.61 56.30 56.20 53.40
43.54 46.12 46.43 48.15 50.61 52.36 60.98 63.69 62.84 60.87 61.30 62.15 62.74 62.91 62.75 63.43 63.49 63.36 63.12 62.84 62.50 62.27 62.20 61.59 61.13 60.97 60.49 59.72 58.41 56.55 54.60 53.93
41.75 42.86 43.92 45.85 47.51 49.50 51.04 53.72 63.02 61.76 61.20 61.73 61.84 62.09 61.86 62.30 62.80 62.49 62.83 62.87 62.76 62.29 61.83 61.56 61.38 60.68 60.43 59.82 59.97 59.06 58.45 56.83
39.95 40.91 42.55 44.14 45.51 47.62 49.72 51.66 52.90 62.24 61.27 61.34 61.08 61.45 61.79 62.90 62.70 62.54 61.92 62.32 62.31 62.11 61.83 61.72 61.07 60.76 60.29 60.13 59.73 59.74 59.67 58.05

GFSFLT2_sfc_wetblb_117.txt.gz
Wetbulb
71.38 72.11 71.80 69.81 69.65 69.83 69.62 69.77 70.33 70.76 71.06 71.21 71.60 70.92 70.41 70.70 70.77 70.98 71.20 70.88 70.76 70.20 69.74 69.28 69.21 68.81 67.96 67.06 66.55 66.93 70.18 69.71
69.83 70.33 71.53 72.15 72.45 68.97 68.90 69.17 69.17 69.84 70.36 70.16 69.74 69.60 69.51 69.66 69.56 70.14 70.19 70.24 69.91 69.42 68.89 68.72 68.47 67.76 67.06 66.32 66.05 66.19 70.04 69.65
68.68 68.75 69.52 71.14 70.69 70.96 69.85 69.51 69.28 69.08 70.07 69.26 68.88 72.46 71.83 70.90 69.13 68.57 69.05 68.95 68.86 68.62 68.20 67.82 66.95 66.93 66.84 66.23 65.37 69.59 69.19 69.34
66.88 67.63 68.35 68.98 68.93 70.02 70.84 71.02 71.72 71.86 71.94 72.14 72.83 72.38 72.18 70.78 68.82 67.53 67.79 67.50 67.53 67.33 67.08 66.46 67.23 69.90 69.10 66.72 67.95 68.17 68.32 66.79
65.48 66.44 67.82 68.05 68.40 68.97 69.19 70.02 70.42 70.60 71.86 71.99 71.73 71.02 70.88 70.32 69.95 69.47 69.68 67.32 68.46 67.65 67.56 69.12 69.34 69.48 69.24 69.09 68.90 67.36 68.19 67.50
65.60 66.25 66.53 67.38 68.21 67.89 68.03 68.50 68.96 69.14 70.41 71.52 70.18 68.43 68.76 69.70 69.19 69.37 69.02 68.80 68.12 67.74 66.60 67.03 67.82 68.43 68.56 68.44 68.44 67.13 68.27 67.35
65.62 65.48 65.37 66.30 66.83 67.01 67.08 67.43 67.64 68.00 69.22 69.58 70.13 68.19 67.75 69.08 68.80 68.57 68.24 68.15 67.84 67.41 66.64 65.99 66.20 67.18 67.80 67.66 67.11 67.80 68.00 68.09
66.15 65.34 65.24 66.02 66.10 66.30 66.54 66.80 67.03 67.43 68.01 68.65 69.48 68.47 67.64 67.53 67.84 67.61 68.09 67.85 66.20 67.25 66.50 66.04 65.91 66.47 66.41 66.88 66.90 67.25 67.70 67.85
66.26 66.42 66.87 65.93 65.46 66.01 65.40 65.96 67.41 68.71 67.85 68.23 68.62 68.45 67.09 67.19 67.34 67.11 67.86 67.35 65.68 66.97 66.65 66.30 65.39 65.22 65.48 65.70 65.99 66.47 66.81 66.34
66.85 66.20 66.35 66.58 66.11 65.67 65.29 66.41 67.81 68.44 68.08 66.91 66.97 67.91 67.85 66.95 66.18 66.63 68.01 65.63 64.96 65.86 64.53 64.45 65.01 64.49 64.33 64.74 64.92 65.63 65.92 66.50
67.18 66.98 66.13 66.77 66.99 66.92 66.88 66.68 67.26 67.80 67.96 66.31 66.12 67.47 68.02 66.93 66.14 65.88 65.99 65.45 64.40 64.48 63.12 64.18 62.92 64.03 63.47 63.90 64.39 64.66 64.90 65.08
68.02 67.10 66.87 67.03 67.05 66.53 66.45 65.73 66.28 67.25 67.34 67.30 66.37 66.76 67.23 66.93 66.23 65.83 65.16 64.47 63.33 63.94 63.36 63.95 64.44 64.49 62.20 62.24 63.12 63.56 64.70 63.89
67.15 67.19 66.63 66.06 65.85 64.62 63.73 63.16 64.00 64.70 67.03 67.34 66.55 66.19 66.58 66.92 65.32 64.61 64.18 63.41 63.05 63.36 63.14 62.74 62.57 64.41 61.92 60.40 61.63 62.63 62.25 62.57
66.35 67.32 67.21 65.98 66.21 65.95 66.40 65.47 65.38 65.30 65.70 65.78 66.50 66.93 66.01 66.18 65.43 63.74 63.40 63.28 63.06 62.73 62.63 61.29 61.76 62.87 59.70 58.96 55.91 58.56 60.34 61.98
53.94 64.84 67.75 67.21 66.81 66.60 66.41 66.16 66.23 64.95 64.70 64.68 65.01 66.86 66.39 66.31 65.70 64.79 63.85 63.54 62.82 62.55 62.31 62.35 59.99 60.95 61.54 59.49 55.15 54.10 57.13 59.62
51.94 56.34 65.80 66.78 66.47 66.31 64.92 64.35 63.04 64.76 65.22 65.34 64.57 65.66 65.77 66.20 65.56 65.21 64.39 63.92 63.39 62.76 62.57 62.86 62.71 60.34 60.65 61.27 60.95 58.61 55.49 53.94
47.80 51.39 51.72 54.08 62.80 66.03 64.81 64.99 65.74 65.66 65.47 64.57 64.97 64.96 65.30 65.84 65.49 64.72 64.70 64.15 64.22 63.92 63.39 62.70 63.54 62.99 60.90 60.11 61.04 60.09 59.72 55.26
45.49 48.39 48.93 50.18 52.69 54.88 62.59 65.21 64.90 63.53 64.48 63.89 64.41 64.90 64.39 65.41 65.34 65.28 65.37 64.97 64.99 64.97 64.21 63.49 63.67 62.99 61.71 60.86 60.05 58.34 56.37 55.75
43.27 45.64 45.40 47.00 48.96 50.73 51.98 53.74 58.51 63.73 64.02 64.45 63.62 63.46 63.84 64.36 64.40 64.23 64.44 64.66 64.35 65.34 64.64 64.01 63.20 62.29 61.95 60.86 61.10 60.47 61.56 59.50
39.44 42.33 43.49 45.16 47.70 48.79 51.07 51.99 53.38 54.98 63.25 64.44 64.83 63.75 63.95 64.48 64.06 64.40 63.98 63.81 63.48 63.95 63.94 63.20 63.20 63.23 62.35 61.67 61.66 63.09 61.87 60.00

GFSFLT2_sfc_wetblb_120.txt.gz
Wetbulb
74.68 74.31 72.85 70.07 70.09 70.02 69.75 70.16 70.63 71.20 71.47 71.70 71.93 71.36 70.90 71.17 71.38 71.81 71.86 71.61 71.53 70.81 70.21 69.72 69.70 69.35 68.58 67.62 67.15 67.76 71.54 70.88
74.29 74.53 74.13 74.18 73.90 69.19 69.19 69.43 69.66 70.18 70.65 70.70 70.09 70.07 70.32 70.39 70.35 71.01 71.12 71.16 70.58 70.14 69.47 69.21 69.21 68.23 67.75 66.88 66.00 66.63 71.22 70.26
73.63 73.48 72.50 74.17 73.98 72.86 70.10 69.70 69.48 69.55 70.64 69.91 69.59 73.31 73.30 72.28 70.29 69.53 70.07 69.71 69.46 69.20 68.91 68.43 67.69 67.57 67.17 66.16 66.40 71.19 71.27 70.56
71.86 71.68 70.73 71.90 71.25 73.23 73.56 72.91 72.71 72.94 72.97 73.23 73.15 73.36 73.11 71.81 70.08 68.31 68.55 68.51 68.26 68.13 67.93 67.21 67.85 71.13 70.24 67.37 70.62 70.55 70.88 70.79
69.75 69.25 69.87 69.79 71.89 71.11 71.56 71.58 72.52 72.60 72.99 73.08 73.19 72.65 72.82 72.09 71.93 70.91 71.30 68.41 70.55 69.41 69.63 70.73 70.48 70.29 70.23 70.46 70.41 70.40 70.29 70.49
69.67 70.05 69.04 68.97 71.61 71.21 71.62 70.42 71.38 71.42 71.94 72.48 72.52 72.01 71.87 71.49 71.04 70.47 70.53 70.39 70.14 70.26 69.75 70.32 70.46 70.20 70.25 69.91 69.98 69.94 69.85 70.33
68.81 69.72 68.91 68.11 71.08 70.82 70.67 70.04 70.40 70.77 71.08 72.60 72.57 70.43 71.00 71.52 71.14 70.26 70.02 69.84 70.13 69.88 69.38 68.93 69.22 69.49 69.52 69.28 69.29 69.68 69.66 70.19
68.36 69.22 69.32 68.38 69.89 70.62 69.58 69.56 69.87 70.01 70.15 71.02 72.82 70.93 70.73 71.25 70.51 70.31 69.64 70.01 70.19 69.77 69.20 68.50 68.24 68.49 68.56 68.95 68.64 69.02 69.17 69.29
65.21 69.22 69.51 68.37 68.04 69.88 69.78 68.86 69.01 69.04 69.47 70.76 71.08 70.80 69.89 71.17 70.17 70.32 69.58 69.72 69.96 69.98 69.09 69.08 68.27 68.03 67.94 68.58 68.66 68.93 68.85 68.64
59.24 68.02 69.13 68.58 68.59 69.13 68.43 68.66 68.15 70.91 70.91 69.78 70.13 70.14 69.86 69.47 68.57 68.26 70.19 68.78 68.55 68.85 68.08 68.01 67.73 67.50 67.03 67.43 67.62 68.02 68.01 67.99
57.78 64.75 69.09 68.72 69.01 68.96 69.04 69.08 69.32 70.16 70.79 69.14 69.27 69.65 69.01 68.79 68.13 68.62 69.97 68.52 67.34 67.95 67.43 67.83 66.74 66.57 66.73 67.05 67.24 67.04 66.82 66.49
57.47 59.96 69.46 69.15 69.50 69.07 68.36 68.47 68.99 69.64 70.07 70.04 68.37 68.79 68.59 68.48 68.24 68.34 68.20 67.80 66.67 66.29 65.94 67.76 67.08 66.54 65.08 65.32 66.12 66.17 66.64 66.41
57.78 58.92 66.93 69.30 67.81 66.86 66.65 66.37 67.40 68.31 69.36 70.04 69.96 68.13 68.43 68.40 67.51 67.43 67.37 66.59 65.77 65.69 65.59 65.55 65.75 66.65 63.97 63.64 63.95 64.74 64.03 64.45
58.55 60.91 63.44 68.83 68.89 68.23 67.41 67.40 67.27 68.02 68.69 69.32 69.95 67.51 67.96 67.77 67.37 66.85 66.22 66.20 65.82 65.43 64.07 64.06 64.76 65.55 62.94 61.82 59.79 61.89 62.68 64.30
56.36 62.62 64.12 68.16 68.16 68.62 68.00 68.04 67.70 66.38 67.26 67.96 68.46 68.79 67.38 67.48 67.70 66.45 66.04 65.66 65.38 64.94 64.28 64.02 62.74 63.77 64.67 63.51 59.45 57.87 61.07 63.77
55.09 60.05 63.77 67.15 67.24 67.40 65.74 66.55 65.14 66.78 67.18 67.54 66.98 67.72 68.55 67.01 67.21 66.88 66.11 65.53 65.21 65.05 64.97 64.24 64.79 61.20 63.40 64.93 65.23 63.15 58.93 57.68
50.30 53.29 53.41 56.13 66.61 67.06 65.51 67.55 67.92 68.39 67.94 67.35 66.56 66.89 68.18 68.01 67.39 66.58 66.03 66.27 66.03 65.87 64.32 64.19 64.39 63.86 63.27 62.85 63.53 63.52 63.25 60.07
45.92 49.53 49.09 52.11 55.22 61.48 66.06 64.85 66.97 67.43 66.56 66.55 65.77 66.06 66.04 66.52 68.46 67.36 66.83 66.22 65.61 65.72 65.05 64.92 64.59 64.72 64.01 63.90 63.36 61.63 61.04 60.17
43.06 45.47 46.51 49.87 52.58 54.01 56.99 58.45 61.68 66.38 66.56 66.48 65.33 65.19 64.27 65.08 66.83 66.72 66.33 66.62 66.23 65.81 65.21 65.37 65.85 65.50 65.77 65.39 65.15 64.26 62.42 60.61
40.39 41.65 42.73 45.85 48.19 51.56 53.14 54.41 54.98 56.56 59.19 61.70 67.05 65.63 65.43 66.20 66.09 66.53 66.50 66.38 66.27 67.78 66.88 66.77 66.81 66.73 65.30 64.85 64.16 63.61 63.00 61.99

GFSFLT2_sfc_wetblb_123.txt.gz
Wetbulb
75.71 74.51 72.74 70.58 70.23 70.06 69.97 70.55 71.23 71.73 71.91 71.97 72.20 71.42 71.49 71.74 72.07 72.23 72.44 72.18 71.74 71.20 70.42 70.01 70.13 69.61 69.12 68.12 67.82 68.70 71.44 71.24
75.24 75.18 74.20 73.66 73.41 69.72 69.48 69.72 70.18 70.68 71.19 71.17 70.46 70.25 70.84 71.01 71.10 71.61 71.69 71.73 71.35 70.65 69.81 69.66 69.39 68.90 68.25 67.49 66.84 67.73 71.08 70.33
75.00 74.97 74.65 74.49 74.28 72.89 70.08 70.00 69.91 70.03 70.92 70.37 69.71 73.00 73.08 72.55 70.91 70.10 70.84 70.50 70.03 69.77 69.41 68.81 68.26 68.19 67.87 66.98 67.11 70.29 70.54 71.26
73.30 74.16 74.16 74.09 73.15 74.36 73.29 72.75 72.30 72.67 72.67 73.23 73.02 72.79 73.07 71.93 70.38 69.21 69.53 69.23 69.03 68.79 68.48 67.76 67.76 70.75 70.29 67.47 70.12 70.14 70.48 70.96
71.55 72.78 72.70 71.92 73.18 72.79 72.82 72.46 72.13 72.56 73.02 73.82 73.35 72.97 73.87 72.22 72.79 71.41 71.60 69.08 70.42 69.40 69.48 70.32 70.04 70.21 69.89 69.53 69.61 70.16 70.16 71.00
66.71 71.80 71.02 70.75 72.20 71.68 71.80 71.77 72.33 71.94 72.29 73.10 73.57 72.89 72.66 72.03 71.01 71.23 71.88 70.56 70.39 69.72 69.39 69.90 70.34 70.37 69.50 70.01 69.76 69.60 69.25 70.18
63.06 69.53 71.16 70.91 71.25 71.67 71.80 72.05 71.48 72.02 72.27 73.03 73.49 72.38 72.25 71.52 71.81 71.04 70.67 70.62 70.60 69.37 70.09 69.85 68.87 69.52 70.10 68.77 68.72 68.74 69.78 69.55
63.02 65.07 71.71 71.01 70.40 72.77 72.28 72.59 71.57 71.51 71.73 72.06 73.75 72.69 72.55 71.84 71.33 70.79 70.61 70.77 70.48 70.27 68.92 68.35 68.89 69.45 68.51 68.75 68.38 68.97 68.94 69.31
59.56 64.13 71.21 71.33 70.31 70.76 71.78 71.24 70.91 70.15 70.99 71.84 72.91 72.60 72.94 73.08 70.76 70.72 70.11 70.86 70.24 69.91 69.74 69.07 67.91 68.05 67.86 68.13 68.13 68.72 68.43 68.72
57.28 58.27 63.22 71.75 70.60 70.39 70.94 70.58 70.55 70.20 70.46 70.55 71.53 71.96 71.54 72.55 71.03 70.55 70.90 69.57 69.87 69.32 69.30 68.13 67.81 67.43 67.24 67.31 67.80 67.54 67.63 67.62
55.94 59.65 61.65 68.37 71.02 70.37 71.41 71.73 70.31 69.87 70.83 70.43 70.38 70.87 70.70 70.81 70.78 70.62 71.95 69.96 69.64 68.97 68.89 68.54 66.93 66.65 66.43 67.54 67.97 67.40 67.21 66.24
55.44 57.11 61.00 63.28 70.50 69.95 69.73 69.84 69.59 69.66 70.52 70.96 70.78 70.02 69.92 69.75 69.38 69.28 70.21 69.36 67.34 68.66 68.55 68.40 67.91 66.29 65.32 65.36 67.37 66.52 67.34 66.18
53.72 55.82 60.40 61.83 68.66 68.24 68.47 68.03 68.56 69.26 69.63 71.47 70.53 69.42 69.14 69.34 68.71 68.57 68.97 68.54 67.44 67.44 67.76 67.65 66.69 67.91 65.79 64.94 65.72 66.40 66.23 66.81
56.38 56.79 57.83 60.48 62.26 69.18 68.92 68.67 68.86 69.28 69.63 71.08 71.76 69.55 68.57 69.14 68.42 67.88 67.85 67.14 66.98 67.16 67.02 66.02 66.81 67.70 64.64 63.29 60.57 61.87 64.36 64.88
53.90 55.34 56.78 59.13 62.45 67.80 67.34 69.70 68.77 68.21 68.45 69.45 70.86 70.11 68.10 68.22 68.77 67.65 67.19 67.12 66.34 66.78 66.71 65.90 64.88 66.66 66.39 63.15 58.74 58.20 61.26 64.92
48.49 51.80 55.46 58.64 61.25 63.17 65.84 67.09 66.03 66.76 67.94 68.87 70.15 70.89 68.41 68.19 68.35 67.41 66.88 66.44 65.85 65.91 66.98 66.58 65.85 62.56 63.98 65.44 66.65 64.30 59.24 58.24
43.49 47.15 53.19 54.60 57.12 61.28 67.13 65.42 68.35 68.35 68.91 68.96 69.74 70.32 69.67 68.00 67.71 67.59 66.29 65.93 65.92 66.45 65.77 66.20 66.75 64.31 62.57 63.49 64.24 65.00 64.89 60.86
41.70 45.04 48.55 49.88 54.69 63.33 68.44 65.36 67.62 65.42 67.71 68.43 68.30 68.20 68.58 69.69 68.02 67.87 67.27 66.26 65.40 66.07 66.08 66.14 65.86 65.59 64.29 64.89 64.24 62.86 61.83 61.38
41.49 43.37 45.47 47.50 51.87 54.61 56.04 65.26 65.58 67.86 63.91 66.17 65.98 65.14 65.89 68.14 69.14 68.85 66.79 66.25 66.07 66.26 65.62 65.23 66.03 64.29 64.28 64.57 66.43 65.05 64.85 63.05
40.47 41.87 43.10 45.51 49.02 50.95 52.98 54.29 58.85 59.82 58.00 59.17 64.11 65.26 65.69 67.08 67.48 67.87 67.85 67.10 66.36 65.97 65.36 65.01 65.88 64.71 65.17 66.76 66.47 66.07 66.18 64.53

GFSFLT2_sfc_wetblb_126.txt.gz
Wetbulb
74.36 72.97 71.54 70.64 70.23 70.15 70.22 71.13 71.58 71.66 71.91 72.06 72.24 71.86 71.63 71.97 72.17 72.08 72.41 72.25 71.76 71.16 70.44 70.04 70.03 69.78 69.32 68.54 67.89 68.42 67.67 68.83
75.27 74.08 72.54 72.06 71.91 69.85 69.62 70.09 70.62 70.98 71.31 71.31 70.59 70.58 70.91 71.33 71.11 71.45 71.96 71.65 71.36 70.53 69.73 69.63 69.54 69.05 68.50 67.92 67.09 67.88 67.98 68.28
74.74 73.07 73.38 72.88 72.55 71.40 69.88 70.14 70.32 70.35 71.10 70.44 68.95 71.78 71.49 71.11 70.60 70.19 71.00 70.32 70.19 69.89 69.30 68.83 68.59 68.30 68.05 67.44 67.40 67.90 67.48 68.31
73.45 73.92 72.35 73.43 72.76 72.40 71.12 70.80 70.76 71.53 72.03 71.96 72.15 71.88 71.51 71.20 70.08 69.34 69.77 69.51 69.21 69.03 68.61 68.07 67.38 68.45 67.38 66.72 67.41 67.93 67.63 67.67
61.82 73.17 72.03 71.77 72.56 72.70 71.69 71.18 70.62 70.75 71.29 72.00 71.81 71.44 71.24 69.98 69.84 69.75 69.87 68.88 68.79 68.31 67.78 68.33 68.03 67.94 67.94 67.52 67.62 67.92 67.41 67.04
59.32 66.17 72.09 71.43 71.54 71.21 72.05 71.01 70.75 70.48 70.96 71.73 70.60 70.55 70.70 70.17 70.00 69.74 69.60 69.11 68.50 67.66 67.84 67.72 67.66 68.01 68.13 67.72 67.99 67.43 67.59 67.17
56.66 61.02 71.14 70.92 70.63 70.00 71.05 70.92 70.35 70.21 70.84 71.44 71.34 70.42 70.19 69.69 69.43 69.40 69.21 69.17 68.60 67.27 67.34 67.24 67.40 67.17 67.93 67.62 67.38 67.24 67.65 67.95
55.09 56.49 62.16 70.55 69.51 69.24 69.98 69.70 70.59 71.03 70.59 70.89 71.39 71.07 70.21 69.52 69.16 69.03 68.72 69.11 68.40 67.70 67.12 66.86 66.77 66.97 66.35 67.19 66.12 67.09 67.24 67.84
55.03 56.65 58.32 64.77 69.89 69.65 69.39 70.11 70.43 69.24 71.02 70.82 71.05 71.64 70.47 69.65 69.09 69.02 68.77 68.84 68.22 68.17 67.60 67.58 66.57 66.90 66.32 66.68 66.63 66.79 66.66 66.97
54.77 55.92 55.76 57.51 67.53 69.51 68.85 68.73 69.81 69.79 69.99 70.83 70.89 71.39 71.01 70.39 69.13 68.89 69.25 68.59 67.92 67.10 66.52 66.12 65.46 65.77 65.19 65.44 65.77 66.00 66.25 66.32
54.68 56.02 56.20 57.50 58.93 68.93 68.31 68.33 69.27 69.49 68.87 68.59 70.38 71.01 70.59 70.13 69.37 68.76 69.37 67.98 67.59 66.81 66.45 65.78 64.68 65.20 64.88 65.07 65.13 65.23 65.73 65.99
54.16 54.83 56.39 58.11 57.83 65.22 67.96 67.61 67.74 68.80 68.89 69.01 69.45 69.97 69.82 69.28 69.13 68.91 69.15 67.64 66.43 66.97 65.95 66.33 65.15 64.25 64.28 63.50 64.69 64.75 64.97 64.28
50.89 51.80 54.43 55.45 53.95 61.88 65.12 65.35 65.82 67.59 68.07 69.12 69.30 69.21 69.57 68.63 68.00 68.29 68.22 67.61 66.71 66.29 66.28 65.14 64.64 65.19 62.28 62.81 62.84 63.92 63.84 63.69
46.89 48.15 49.69 51.53 54.61 57.10 62.28 64.47 65.74 66.85 67.67 67.97 69.32 68.73 68.84 68.45 67.58 67.29 67.22 66.80 66.49 66.08 65.81 64.73 64.57 65.10 61.53 61.14 57.26 59.87 61.62 62.83
44.02 45.25 46.22 48.63 51.01 54.71 55.94 57.55 64.85 64.74 66.14 66.58 69.06 68.94 68.82 68.15 67.50 66.82 66.82 66.24 65.96 65.38 65.13 64.41 63.11 63.98 64.07 60.70 56.10 54.69 58.37 61.39
42.20 43.44 44.12 46.16 49.70 51.08 54.59 54.64 55.54 63.43 65.39 66.33 68.40 68.78 68.34 68.05 67.48 66.72 66.04 66.23 65.29 65.71 65.25 64.98 63.89 62.55 63.48 63.91 62.29 61.49 56.32 55.74
39.62 41.62 42.56 45.14 47.21 51.49 51.25 52.56 55.33 60.64 65.31 65.29 66.98 68.05 67.89 67.62 67.04 66.66 65.89 65.44 65.44 64.99 64.74 64.59 64.10 63.25 62.47 60.69 61.60 61.57 61.69 58.43
36.97 38.95 41.55 44.33 47.35 48.95 52.09 53.58 55.53 57.35 64.29 64.08 65.83 67.58 66.70 66.28 66.66 66.60 66.17 65.24 65.03 64.76 64.77 65.01 64.01 64.00 62.94 62.07 60.80 59.90 59.87 58.63
35.64 36.89 39.57 43.41 44.83 49.16 52.53 54.97 58.23 60.46 63.28 64.28 64.68 66.02 66.27 65.47 65.69 65.75 65.55 65.31 64.99 65.11 64.92 64.46 64.06 63.49 63.62 62.47 63.24 62.20 61.90 60.47
33.76 35.34 38.18 41.78 44.18 48.31 49.32 51.66 55.12 56.36 55.32 59.76 63.13 64.50 65.25 66.66 65.32 65.47 65.48 65.52 64.88 64.95 64.48 64.70 64.35 63.62 62.89 63.04 63.07 63.33 63.21 61.57

GFSFLT2_sfc_wetblb_129.txt.gz
Wetbulb
70.58 70.60 70.96 70.35 69.64 69.84 70.16 70.95 71.31 71.42 71.60 71.56 71.85 71.74 71.44 71.60 71.52 71.53 71.54 71.66 71.19 70.76 70.17 69.50 69.62 69.42 68.96 68.23 67.53 67.71 67.55 66.19
70.99 70.32 70.16 69.47 69.07 69.13 69.40 69.87 70.21 70.51 70.98 70.80 70.48 70.59 70.90 70.98 70.89 71.05 71.30 71.28 70.96 70.04 69.46 69.09 69.14 68.82 68.36 67.56 67.02 67.53 67.18 66.85
69.15 70.49 70.12 69.89 69.53 69.73 69.48 69.95 69.99 69.97 70.53 70.21 68.75 70.39 70.57 70.78 70.31 69.97 70.55 70.22 69.97 69.47 68.78 68.52 68.16 68.16 67.98 67.11 67.26 66.75 66.83 66.75
60.89 69.18 70.19 69.91 71.07 69.52 68.41 69.00 69.00 69.54 70.29 69.99 69.92 69.56 69.92 70.62 69.71 68.99 69.42 69.26 69.15 68.56 68.23 67.62 67.12 66.87 66.74 66.93 66.38 66.62 66.62 66.54
50.56 62.51 68.75 70.01 70.68 69.74 68.93 68.87 68.55 69.20 69.67 69.90 69.92 70.01 69.81 69.49 68.30 69.21 68.68 68.55 68.28 67.78 67.83 67.37 67.08 66.61 66.17 65.95 66.15 66.42 66.12 66.36
51.29 52.02 64.53 68.28 68.76 69.15 69.78 69.23 68.56 68.51 68.98 69.47 69.70 68.93 68.50 67.82 68.00 68.39 68.25 68.12 66.61 66.69 66.51 66.76 66.23 66.82 66.83 66.46 66.09 66.26 67.69 65.61
50.76 51.54 54.93 65.76 68.69 68.41 68.05 69.86 69.22 68.50 68.79 69.27 69.52 68.73 67.89 67.73 67.89 68.27 68.25 67.78 66.88 66.00 66.11 66.42 65.79 65.88 66.56 66.96 66.46 66.05 67.15 65.71
52.10 53.32 51.61 58.72 67.57 67.68 66.91 67.95 69.18 68.75 68.89 69.27 69.47 68.58 67.83 67.76 67.97 67.86 67.77 67.52 66.93 66.32 65.94 65.41 65.06 65.12 64.88 66.38 66.07 66.57 67.14 66.41
50.22 51.73 53.14 52.57 64.57 67.76 67.68 67.65 68.29 67.44 68.77 69.17 69.85 68.72 67.74 67.46 67.29 67.24 67.36 67.63 66.37 66.21 64.97 65.13 64.61 65.49 64.88 65.77 65.31 66.16 66.29 66.91
47.34 50.11 50.61 51.87 52.79 63.27 67.58 67.26 67.47 67.95 67.30 68.79 69.44 69.40 68.57 67.53 67.30 67.03 67.21 66.88 66.27 65.70 64.54 63.94 64.75 65.40 64.41 65.17 65.20 65.27 65.34 66.39
43.65 45.86 47.17 48.77 49.77 53.51 62.18 65.99 66.44 67.46 67.26 68.65 68.37 69.10 68.84 68.06 67.54 66.88 67.14 66.69 65.14 65.56 64.20 63.64 63.44 64.39 64.35 64.77 64.86 64.70 65.40 66.02
42.18 43.66 44.68 46.47 47.51 49.91 54.69 63.36 66.30 66.48 66.94 67.86 68.87 69.26 69.10 68.23 67.24 66.75 67.38 66.48 65.46 65.04 63.91 63.32 63.17 62.46 64.38 63.91 64.09 63.18 64.92 64.42
40.22 40.71 42.65 43.72 44.44 45.54 48.20 51.64 58.44 64.28 65.70 67.36 67.12 68.85 69.25 68.72 67.06 66.66 67.08 66.03 65.47 65.14 63.81 63.19 62.57 62.97 61.95 61.80 62.44 63.06 63.56 63.38
38.39 39.43 40.37 41.99 42.92 44.29 46.23 49.33 54.22 56.83 63.56 65.82 67.44 67.24 68.77 68.55 67.41 66.79 67.07 65.94 64.75 64.39 63.84 62.16 62.67 62.88 60.30 58.01 55.08 57.80 60.83 62.29
36.96 38.12 38.35 40.31 41.98 43.37 45.28 47.69 52.45 55.20 57.75 63.03 65.78 67.29 67.87 68.22 67.13 66.91 65.99 66.06 65.04 64.88 64.26 63.60 62.00 62.08 61.67 58.83 55.13 53.42 56.40 59.19
35.54 36.05 36.63 38.71 40.95 41.81 43.17 44.85 47.76 51.07 54.24 56.78 61.90 66.39 67.25 67.66 66.98 66.35 66.16 65.54 65.57 64.84 64.32 63.81 63.41 61.09 60.68 61.40 58.70 57.44 53.68 54.33
35.05 35.14 35.59 37.92 40.50 42.09 44.19 45.50 48.08 49.93 51.85 54.78 56.21 63.34 66.96 67.10 66.94 66.13 65.74 65.52 64.60 64.83 64.00 63.67 64.26 63.01 62.22 59.44 59.75 58.67 59.22 56.91
33.92 33.79 35.57 37.29 40.34 42.77 44.12 44.74 46.37 48.39 50.65 53.11 54.65 58.96 64.90 67.21 66.88 65.83 65.80 65.41 64.80 64.54 64.50 63.94 63.73 63.60 63.03 60.05 59.84 60.38 58.08 56.42
34.04 34.53 34.83 37.22 39.93 42.61 44.38 46.39 49.89 50.50 50.79 53.34 55.66 55.07 56.45 66.50 66.61 65.19 65.15 65.23 65.15 64.62 63.93 64.22 63.85 63.03 62.89 62.66 60.53 60.02 59.88 59.37
33.19 33.68 34.52 36.88 39.54 41.56 44.35 47.19 49.56 53.34 53.68 55.92 56.41 53.69 53.52 65.97 65.86 64.86 65.23 64.77 64.51 64.40 63.95 64.02 63.89 63.50 63.18 63.13 62.63 62.68 61.32 61.01

GFSFLT2_sfc_wetblb_132.txt.gz
Wetbulb
69.53 69.58 70.34 69.81 69.26 69.42 69.59 70.36 70.79 70.87 71.19 71.20 71.41 71.07 70.82 71.37 71.41 71.35 71.40 71.30 70.94 70.67 69.92 69.48 69.50 69.23 68.73 67.61 66.98 67.50 66.17 63.77
68.93 68.53 68.91 69.05 68.76 68.75 68.96 69.32 69.64 70.02 70.38 70.23 69.75 70.00 70.26 70.48 70.25 70.49 70.90 70.79 70.57 70.07 69.28 68.79 68.84 68.35 67.86 66.80 66.47 67.14 66.13 65.01
61.25 69.27 68.80 68.42 68.44 69.08 69.22 69.61 69.59 69.37 69.98 69.69 69.10 70.27 70.20 70.40 69.79 69.45 70.07 69.98 69.71 69.13 68.57 68.10 67.61 67.52 67.41 66.80 66.72 66.39 66.02 65.72
49.79 56.07 66.19 68.67 69.99 68.80 67.97 68.48 69.10 70.15 70.27 70.34 70.38 68.92 69.51 70.61 69.38 68.46 69.05 68.89 68.64 68.33 67.90 67.41 67.18 66.36 66.36 66.60 65.69 65.84 65.79 65.63
51.11 52.64 53.44 60.86 68.20 68.69 67.54 67.72 67.63 68.56 68.92 69.77 69.25 69.44 69.05 69.35 68.56 69.05 68.83 68.35 68.44 67.52 67.04 67.57 66.48 65.66 65.14 65.21 65.40 65.77 65.44 65.08
48.35 50.62 51.84 52.36 53.68 66.58 68.15 67.49 67.63 67.70 68.69 69.17 69.42 68.78 68.04 68.17 67.99 67.95 68.29 68.51 67.15 67.09 66.87 66.40 65.87 65.72 65.65 65.31 65.16 65.03 65.19 64.65
45.94 47.87 49.35 50.60 52.01 54.03 63.46 67.65 67.81 67.90 67.81 69.25 69.73 69.10 68.04 67.63 67.47 67.90 68.33 67.86 66.82 66.18 65.46 65.75 65.31 65.25 65.86 65.75 65.06 65.73 66.15 64.45
44.12 45.27 46.93 48.22 49.05 50.42 51.85 62.69 68.13 67.72 67.72 68.36 69.57 69.11 68.35 67.45 67.34 67.61 67.52 67.50 66.66 65.96 65.46 65.08 64.79 64.91 64.69 65.42 65.46 66.24 66.24 65.04
42.45 43.52 44.73 45.21 46.60 48.22 49.49 53.06 62.69 66.87 67.81 68.05 68.49 69.02 68.15 67.50 67.21 67.12 67.39 67.19 66.46 65.61 64.65 64.14 63.71 64.44 64.29 63.75 65.94 65.80 66.44 65.33
41.37 42.86 42.31 42.72 44.06 45.81 48.58 50.31 54.17 63.11 66.67 67.69 68.25 68.88 68.10 67.76 67.07 67.03 67.52 66.89 66.18 65.35 64.70 64.11 63.65 63.92 63.11 64.09 64.73 65.22 66.17 66.04
39.40 39.87 39.98 41.37 42.26 44.06 45.99 48.28 51.10 60.58 65.40 66.13 67.36 68.49 68.41 67.71 67.35 67.00 66.89 66.65 65.78 65.60 64.45 64.29 63.31 63.53 63.60 64.64 64.49 64.27 64.73 66.01
37.57 38.29 39.47 40.04 40.80 42.23 43.66 45.76 48.81 51.09 55.71 64.89 65.72 67.30 68.12 67.74 67.56 66.71 66.58 66.22 65.44 65.20 64.42 63.97 63.47 63.92 64.45 64.25 62.48 64.42 64.87 65.20
35.39 36.24 37.05 37.66 37.60 38.02 40.20 41.02 43.99 47.06 53.32 56.30 63.00 65.65 66.79 67.26 67.18 66.29 66.60 65.80 65.65 64.94 64.24 63.14 61.44 61.68 62.39 61.47 62.04 63.10 63.37 63.91
34.40 35.06 35.54 36.07 36.59 37.51 39.39 41.01 43.29 46.86 48.42 53.97 59.70 61.15 65.14 66.39 66.98 66.05 66.53 66.15 65.34 64.42 63.59 61.48 62.28 62.58 60.49 60.42 57.99 58.68 60.47 62.68
33.43 34.14 34.75 35.82 36.49 37.27 38.94 41.06 43.54 45.40 48.95 52.63 56.30 60.06 62.04 65.51 66.51 66.67 65.94 65.85 64.96 64.29 64.07 63.00 61.32 60.83 60.88 58.61 55.03 53.99 55.60 58.17
33.30 34.48 34.88 36.57 37.03 36.92 36.77 37.65 38.96 43.25 47.34 50.26 51.58 55.10 58.50 62.16 65.55 66.39 66.16 66.16 65.25 64.72 64.61 63.50 62.73 61.31 59.48 60.33 57.58 56.50 54.52 52.98
33.67 34.32 34.68 35.81 36.42 37.77 37.59 38.89 41.84 43.97 46.19 47.59 49.01 51.98 56.27 58.36 57.96 64.64 65.88 65.87 65.91 64.98 64.27 63.59 63.48 62.74 62.25 60.09 59.42 58.00 57.03 54.30
33.24 33.97 34.45 35.92 37.52 38.55 39.14 40.16 40.98 42.20 43.92 45.75 48.32 51.44 54.51 57.03 57.19 56.01 65.51 66.07 65.33 64.98 64.47 64.14 63.59 63.44 63.04 61.47 61.17 58.53 56.07 55.79
32.91 33.36 33.25 34.51 36.02 37.19 39.36 41.53 43.50 45.06 46.26 47.69 49.07 50.11 53.32 56.51 57.26 56.69 56.93 64.63 65.38 65.31 64.80 64.32 63.74 62.69 62.64 62.09 62.36 62.06 59.10 57.59
32.58 32.91 33.08 34.33 35.58 36.15 39.17 41.84 43.39 45.11 47.81 49.10 50.11 52.91 53.64 53.41 52.93 52.81 59.61 60.64 65.12 64.41 64.23 64.12 63.39 62.54 62.47 62.85 62.30 62.78 61.58 59.73

GFSFLT2_sfc_wetblb_135.txt.gz
Wetbulb
65.92 68.52 69.52 69.27 68.40 68.76 69.42 70.12 70.84 70.83 70.72 70.83 71.12 70.97 70.72 71.27 71.19 71.34 71.25 71.30 70.96 70.78 70.13 69.40 69.31 69.04 68.62 67.37 66.58 66.90 64.93 63.86
51.91 54.81 63.09 67.93 68.14 68.23 68.23 68.97 69.49 69.92 70.26 70.05 69.56 69.74 70.03 70.18 70.06 70.50 70.65 70.79 70.54 70.06 69.09 68.71 68.67 68.29 67.71 66.51 66.31 66.72 65.08 63.14
49.99 52.00 52.87 53.33 63.34 68.73 69.16 69.39 69.33 68.23 69.51 69.58 68.45 69.97 69.63 70.00 69.58 69.24 69.92 69.94 69.56 69.25 68.62 67.98 67.64 67.55 67.21 66.38 66.34 65.70 65.28 64.27
46.79 48.42 50.45 51.72 53.94 54.81 65.47 68.18 69.08 68.68 69.91 69.83 70.10 69.70 69.29 69.94 69.26 68.23 68.94 68.83 68.63 68.25 67.78 67.22 66.97 66.03 66.05 66.56 65.11 65.36 65.18 64.62
44.79 45.81 47.84 48.60 49.72 52.77 54.88 64.85 67.23 68.50 69.40 69.01 69.38 69.24 69.21 69.74 68.99 68.63 68.63 68.38 68.14 67.30 66.69 66.98 66.70 65.17 65.29 64.56 64.71 64.71 64.45 64.61
42.97 43.81 44.69 45.19 47.38 49.20 51.08 53.19 61.45 67.51 68.09 68.77 68.20 68.05 68.25 68.51 68.62 68.94 68.97 68.90 68.20 67.03 66.83 66.72 65.47 64.97 64.51 64.37 64.42 64.10 64.18 64.32
41.36 42.49 42.76 43.26 43.95 45.45 47.26 48.63 52.36 57.60 66.88 68.24 68.30 68.22 67.61 68.12 68.07 68.19 68.47 68.70 67.75 67.04 66.34 65.39 64.97 64.52 64.61 64.44 64.24 64.22 64.58 63.96
40.65 40.99 41.55 41.52 41.62 43.01 44.19 45.96 49.55 51.73 57.63 67.13 67.91 67.76 68.57 68.03 67.58 67.52 67.96 67.84 67.34 66.81 65.41 64.89 64.66 64.59 64.43 64.84 64.68 64.55 65.26 63.61
38.62 39.93 40.10 39.62 40.23 41.38 42.31 44.22 47.38 48.71 52.58 59.08 66.97 67.09 67.29 68.00 67.72 67.30 67.47 67.60 66.97 66.11 64.92 63.86 63.52 63.90 63.99 64.07 64.58 64.78 65.92 63.99
37.25 38.50 38.02 38.55 38.98 39.57 41.07 42.69 44.35 46.23 49.66 55.72 61.81 65.61 66.95 66.67 67.30 67.33 67.61 67.07 66.61 65.78 64.77 63.96 63.28 63.26 63.23 63.32 63.99 64.24 65.82 64.96
35.18 36.00 36.34 36.94 37.69 38.26 38.92 40.64 42.47 45.38 48.22 49.94 53.08 61.89 66.24 66.51 66.57 67.44 67.82 67.06 66.50 65.80 64.46 64.03 62.76 62.36 62.89 62.22 63.06 63.76 65.08 65.45
35.05 35.43 36.01 36.37 36.69 36.98 37.51 38.38 41.09 43.42 44.66 47.13 50.75 54.72 58.46 66.27 66.43 66.57 66.77 66.77 65.85 65.46 64.02 63.82 63.09 62.53 63.16 62.42 62.57 62.68 64.61 64.90
33.96 33.99 34.66 35.09 34.57 34.28 34.88 35.22 37.09 39.73 42.37 45.70 48.37 49.27 55.49 62.01 65.94 65.83 66.45 65.74 65.85 65.27 63.91 62.59 61.20 63.07 61.58 58.87 60.08 61.24 61.76 63.48
32.87 33.63 34.41 35.35 35.46 35.83 36.24 36.43 37.64 39.40 41.55 43.75 46.25 50.14 56.42 60.56 64.31 65.03 65.73 65.63 65.72 64.24 63.92 63.15 62.73 62.60 60.11 59.54 56.63 59.25 59.93 61.83
32.58 34.04 34.66 35.45 36.23 37.04 37.17 37.65 38.19 38.44 40.62 43.15 47.35 51.81 52.47 54.77 58.79 63.48 64.12 65.65 65.04 64.26 64.33 62.79 61.65 60.64 60.17 58.27 53.98 54.05 55.34 57.87
33.90 34.30 34.35 35.65 36.60 35.74 35.77 34.90 34.39 37.33 39.12 42.32 45.65 49.21 50.53 52.48 55.84 60.07 63.04 65.06 64.98 64.51 64.76 63.69 62.20 60.51 58.43 59.44 57.45 56.26 54.89 53.02
33.63 33.71 34.37 34.74 35.12 35.86 35.83 35.98 37.73 39.15 40.03 41.48 43.01 45.33 47.72 50.83 53.99 57.46 57.26 58.12 63.38 64.62 64.24 63.12 62.87 61.80 61.29 58.54 58.15 57.00 54.62 53.51
32.82 33.10 33.47 34.29 35.00 35.86 36.32 36.27 37.22 38.93 40.43 41.00 42.69 45.03 47.38 51.62 55.33 56.04 57.14 56.30 58.55 61.61 63.95 63.32 62.80 62.26 61.82 61.47 60.77 58.98 57.19 55.04
32.67 32.93 31.65 33.43 34.61 35.33 35.98 36.79 38.54 39.74 41.85 43.54 44.78 45.54 47.51 50.08 53.90 55.09 56.83 56.94 57.33 58.86 63.42 63.25 62.52 61.91 61.55 61.57 62.11 61.23 58.98 57.50
32.52 32.69 31.36 33.42 33.68 34.05 35.98 37.25 37.57 38.95 41.73 43.97 46.01 47.93 48.74 50.14 52.87 51.68 56.27 58.00 58.96 59.22 58.88 63.49 62.92 62.52 61.81 61.48 62.01 62.05 58.84 57.96

GFSFLT2_sfc_wetblb_138.txt.gz
Wetbulb
50.49 51.57 54.58 56.38 61.38 65.69 67.85 69.02 70.23 70.08 69.49 70.67 70.99 70.97 70.68 70.97 70.87 71.26 71.05 70.84 70.74 71.19 70.32 69.38 69.37 69.00 68.61 67.29 66.47 66.73 64.66 64.58
46.35 47.91 50.46 50.35 52.43 57.56 61.13 67.98 68.37 69.42 69.49 69.22 69.22 69.49 70.01 70.27 70.20 70.42 70.64 70.58 70.68 70.55 69.59 68.94 68.67 68.18 67.78 66.81 66.05 66.53 65.01 64.00
44.37 45.16 47.35 47.65 50.03 53.37 55.21 58.15 67.06 68.75 68.77 68.03 66.96 69.13 69.09 69.63 69.54 69.26 70.02 69.66 69.59 69.41 68.76 68.02 67.58 67.58 67.42 66.70 66.32 66.16 65.23 63.66
42.62 43.28 44.56 45.10 47.95 48.67 50.05 51.83 56.99 65.21 68.41 68.85 68.23 68.61 69.75 68.77 69.02 68.25 68.70 68.75 68.59 68.41 67.87 67.24 67.06 66.63 66.74 66.72 66.02 65.93 65.46 64.86
41.52 41.93 42.95 42.25 43.62 45.65 46.58 48.97 50.61 53.92 63.27 67.62 68.32 68.97 68.37 68.68 68.68 68.70 68.05 67.76 68.07 67.62 66.83 66.60 66.24 65.63 65.58 65.15 65.25 65.30 65.30 65.05
40.15 40.59 41.07 40.66 41.75 42.72 44.83 45.94 47.54 49.39 52.09 55.85 67.11 67.94 67.47 67.53 68.32 69.03 68.61 69.08 68.55 67.35 66.63 67.11 66.61 65.02 65.04 64.75 64.69 64.40 64.62 64.78
38.21 38.85 39.17 39.18 39.83 40.99 41.54 42.59 44.71 46.95 49.29 51.17 58.17 66.08 67.33 67.65 67.60 67.87 67.96 68.71 68.50 67.33 66.84 66.45 65.06 64.78 64.57 64.65 64.33 64.20 64.63 64.56
37.15 37.54 38.08 38.18 38.29 38.79 39.18 40.67 42.50 44.95 46.61 49.21 52.19 57.76 65.76 66.95 66.91 67.18 67.35 67.97 67.66 67.13 66.68 65.28 64.50 64.94 64.25 64.40 64.44 64.28 64.55 64.48
35.87 37.14 37.57 36.90 37.07 37.48 38.22 39.00 40.84 42.15 44.02 46.25 48.85 53.89 55.84 64.49 66.33 66.37 67.06 67.70 67.24 66.62 66.17 65.48 64.32 64.52 64.08 64.21 64.56 64.33 64.78 64.35
35.35 36.76 36.10 36.16 36.18 36.79 37.65 38.09 38.66 39.61 42.09 45.02 47.43 49.33 52.07 55.51 64.58 65.86 67.15 67.11 67.00 65.97 65.36 64.14 63.62 63.76 63.72 63.67 64.24 64.36 64.72 64.82
34.04 34.84 35.01 35.36 35.95 36.47 36.81 37.32 37.58 38.90 40.83 42.73 43.76 46.76 49.16 54.05 55.80 65.39 66.64 66.59 66.08 65.77 64.74 64.33 63.29 63.32 63.17 62.98 63.65 63.76 64.22 65.04
33.96 34.44 35.05 35.28 35.91 36.14 36.52 36.87 37.56 38.05 38.40 40.04 42.46 44.24 47.50 49.31 50.85 56.02 65.86 65.68 65.63 65.49 64.72 64.37 64.15 63.37 62.82 62.34 62.43 63.29 64.00 64.44
32.96 33.53 34.63 34.61 34.53 34.45 34.87 34.84 36.46 37.72 38.68 40.03 41.38 42.75 44.52 45.72 48.13 54.91 62.37 61.08 63.86 65.19 64.78 63.62 62.97 62.95 60.69 60.14 60.54 60.94 61.80 63.82
32.81 33.57 33.91 34.97 35.24 35.33 36.04 35.93 36.92 37.91 38.88 40.24 41.46 43.54 45.89 48.47 51.50 54.66 57.33 60.46 58.32 64.84 64.02 63.04 63.00 62.81 60.60 59.50 57.22 58.53 60.89 62.03
33.23 33.81 34.37 35.02 35.42 35.20 35.94 36.35 37.03 37.12 37.87 38.52 40.45 42.14 44.19 46.68 49.81 50.96 53.83 58.12 61.20 63.02 64.01 63.46 61.32 62.25 61.50 58.55 54.29 54.99 56.90 58.83
33.88 33.86 33.99 34.65 34.97 34.32 34.20 33.74 33.16 36.07 37.65 39.21 40.41 41.76 42.77 44.85 47.62 48.85 51.24 56.68 60.59 62.26 64.00 64.06 62.68 60.79 61.67 61.08 58.23 56.76 55.66 53.74
33.17 33.50 34.09 34.06 34.19 34.28 34.71 34.54 35.58 36.93 38.38 39.28 40.80 42.60 43.46 44.71 45.96 47.32 50.30 55.19 56.38 60.67 62.05 62.98 63.30 61.94 61.01 60.59 56.88 56.18 55.66 54.65
32.46 32.76 32.95 33.69 34.07 33.82 34.57 34.49 35.40 36.24 37.25 38.22 40.63 43.13 44.26 45.37 46.16 48.06 52.95 54.73 54.71 57.11 60.38 58.16 59.42 62.45 61.90 61.60 60.42 57.82 54.87 54.37
32.47 32.09 31.53 32.58 33.38 33.90 33.93 34.54 34.84 34.60 36.63 37.90 39.33 41.33 43.89 46.12 47.23 49.07 51.49 54.22 54.91 56.75 59.02 59.15 57.20 61.04 61.73 61.37 61.75 61.26 58.54 57.10
31.45 31.30 31.47 32.54 33.03 33.38 34.44 34.31 34.46 34.51 36.21 37.05 39.00 41.24 44.02 47.07 48.57 49.74 51.13 54.85 54.97 56.34 58.53 58.61 58.29 57.16 61.30 61.62 61.65 61.86 59.98 58.52

GFSFLT2_sfc_wetblb_141.txt.gz
Wetbulb
49.71 50.77 52.01 53.01 54.60 56.76 57.69 59.78 66.10 68.97 70.25 70.18 69.69 69.11 70.00 71.23 71.29 70.91 70.93 70.65 70.96 70.54 70.80 69.93 69.52 69.20 69.07 67.76 66.55 66.80 69.63 69.20
47.53 48.48 49.34 49.19 51.58 53.85 54.89 56.04 57.67 62.28 68.90 69.46 68.79 68.45 68.86 69.11 70.26 70.31 70.57 70.29 70.56 70.45 69.92 69.13 68.93 68.60 68.00 67.24 66.31 66.77 69.79 69.07
46.87 46.46 47.50 47.20 49.27 50.55 52.13 53.64 54.66 56.13 62.42 67.17 69.00 71.32 71.50 71.09 69.49 68.76 69.92 69.64 69.14 69.59 68.76 68.42 67.91 67.75 67.78 67.06 66.65 70.64 70.37 69.66
45.19 45.26 45.81 45.73 46.91 48.50 49.44 50.40 51.88 53.33 55.90 55.67 61.87 70.25 71.30 70.34 69.28 67.17 67.69 68.07 68.02 68.11 68.07 67.10 67.68 70.80 70.42 67.87 70.54 70.66 70.21 69.92
43.55 43.86 44.71 44.58 44.85 46.19 47.01 47.76 49.31 50.60 52.78 54.29 55.32 60.35 70.07 70.76 70.46 70.19 71.49 69.00 71.77 70.21 70.63 70.77 70.68 70.67 70.43 70.27 70.44 70.75 70.31 70.09
42.50 42.80 43.30 43.57 44.52 44.74 45.21 45.93 47.18 48.03 49.71 51.56 53.00 56.61 57.54 68.55 69.98 69.67 69.97 70.43 70.55 71.40 70.77 70.73 70.65 70.43 70.30 69.84 70.15 70.02 69.71 70.13
41.38 42.13 42.62 42.43 42.87 43.41 43.95 44.35 45.29 46.38 47.37 49.82 51.05 52.13 54.53 59.26 67.13 70.13 69.12 68.97 69.49 69.13 69.47 69.63 69.80 68.28 69.61 69.60 69.34 69.58 69.52 69.53
40.89 41.20 41.95 41.75 41.82 42.31 42.64 43.65 44.42 44.87 45.96 47.34 48.77 50.86 52.03 55.78 58.84 66.39 68.26 68.61 68.63 68.84 68.30 68.37 68.33 67.14 67.33 69.29 69.03 69.08 69.21 69.32
39.74 40.57 41.29 41.00 41.04 41.49 42.02 42.94 43.17 43.42 44.28 45.89 47.60 48.92 50.64 51.55 53.75 59.02 65.30 67.86 68.19 68.13 68.19 68.87 67.56 66.36 66.51 68.49 68.93 68.79 68.38 68.66
39.19 39.56 39.97 40.38 40.54 41.00 41.45 42.05 42.36 42.93 43.49 44.46 45.60 46.41 47.56 49.14 50.93 53.98 61.96 66.34 67.72 67.10 66.50 66.34 65.88 65.68 65.10 67.43 68.02 68.58 68.20 68.38
38.10 38.99 39.54 39.59 40.21 40.79 41.44 42.02 42.03 42.82 43.24 43.61 44.25 45.10 46.56 47.21 48.57 52.54 56.15 56.60 64.83 66.57 65.74 65.47 64.54 64.74 64.70 66.45 67.73 67.79 67.73 67.56
38.02 38.93 39.21 39.32 40.07 40.49 40.79 40.80 41.61 42.14 42.25 43.00 43.84 44.31 45.30 46.25 47.53 49.33 51.03 53.07 54.63 65.30 65.10 65.07 64.59 64.66 64.15 65.23 67.02 67.54 67.72 67.48
37.64 37.83 38.38 38.62 38.18 37.26 36.90 36.66 38.62 40.01 41.42 42.41 43.15 43.00 43.70 44.16 46.12 48.94 50.59 52.08 54.44 62.02 64.81 63.29 63.47 64.45 63.20 63.46 64.52 66.66 66.94 67.40
37.41 37.42 37.79 37.92 37.03 36.55 36.40 36.82 37.64 38.75 40.03 41.23 42.39 42.49 42.85 42.69 44.74 46.59 50.71 54.38 55.63 57.80 63.42 62.07 62.14 64.26 61.53 62.35 59.49 60.86 62.75 64.61
36.75 36.86 37.17 37.21 36.52 36.23 35.83 36.84 37.39 36.81 38.30 39.20 40.51 42.63 43.82 43.54 43.55 46.08 49.15 52.02 53.58 55.76 60.12 56.73 54.11 59.88 63.68 62.83 58.71 56.87 61.16 63.63
36.77 36.81 36.20 36.56 35.80 34.40 34.13 33.14 32.48 34.90 36.37 37.86 39.06 41.29 43.34 44.50 45.26 44.75 45.40 48.47 52.40 56.49 59.22 58.52 57.89 56.37 60.55 63.86 65.09 63.63 59.24 59.01
35.86 36.20 35.55 35.04 34.83 34.55 34.27 33.67 34.55 35.60 36.05 36.98 38.24 40.61 43.09 45.25 46.03 46.06 45.36 48.54 50.77 53.84 56.52 59.71 58.24 60.10 57.99 61.15 63.16 62.70 63.04 61.09
35.09 35.09 34.35 34.86 34.40 34.89 34.70 34.21 33.67 33.60 34.24 35.20 37.05 38.94 40.99 43.50 45.67 46.98 46.85 48.58 51.00 54.55 58.41 61.03 61.33 60.47 60.24 61.35 61.06 60.87 60.11 61.16
33.66 34.06 33.40 34.23 33.99 34.14 34.42 34.35 33.80 33.11 33.81 34.18 34.96 36.66 38.93 40.78 43.21 46.45 47.81 50.11 52.13 55.54 57.11 59.06 61.94 61.31 60.11 58.30 62.45 63.31 63.21 62.45
32.97 32.73 32.95 33.54 33.14 33.56 34.59 34.22 34.19 33.43 32.91 33.37 34.15 35.28 37.15 40.34 42.65 44.34 47.17 50.55 52.99 54.64 57.22 58.06 61.52 60.06 58.98 58.33 59.59 62.64 63.28 62.83